| time (UTC) | temp F | wind direction | speed MPH | gust MPH | rain 1hr in | rain 24hr in | rain mn in | humidity % | barometer mb |
| 20260506134703 | 70 | 245 | 6.0 | 10.0 | 0.00 | 0.29 | 0.00 | 47 | 1046.0 |
| 20260506134653 | 70 | 246 | 6.0 | 10.0 | 0.00 | 0.29 | 0.00 | 47 | 1046.0 |
| 20260506134643 | 70 | 243 | 6.0 | 10.0 | 0.00 | 0.29 | 0.00 | 48 | 1046.0 |
| 20260506134630 | 70 | 241 | 5.0 | 10.0 | 0.00 | 0.29 | 0.00 | 48 | 1046.0 |
| 20260506134620 | 70 | 255 | 5.0 | 10.0 | 0.00 | 0.29 | 0.00 | 48 | 1046.0 |
| 20260506134349 | 70 | 229 | 5.0 | 10.0 | 0.00 | 0.29 | 0.00 | 50 | 1046.1 |
| 20260506134048 | 70 | 232 | 5.0 | 13.0 | 0.00 | 0.29 | 0.00 | 50 | 1046.0 |
| 20260506134039 | 69 | 273 | 6.0 | 13.0 | 0.00 | 0.29 | 0.00 | 49 | 1046.1 |
| 20260506134032 | 69 | 268 | 5.0 | 13.0 | 0.00 | 0.29 | 0.00 | 50 | 1046.1 |
| 20260506134020 | 69 | 242 | 5.0 | 13.0 | 0.00 | 0.29 | 0.00 | 51 | 1046.1 |
| 20260506134003 | 69 | 260 | 5.0 | 13.0 | 0.00 | 0.29 | 0.00 | 50 | 1046.1 |
| 20260506133957 | 69 | 259 | 5.0 | 13.0 | 0.00 | 0.29 | 0.00 | 50 | 1046.1 |
| 20260506133725 | 69 | 226 | 5.0 | 13.0 | 0.00 | 0.29 | 0.00 | 51 | 1046.1 |
| 20260506133717 | 69 | 222 | 4.0 | 13.0 | 0.00 | 0.29 | 0.00 | 53 | 1046.1 |
| 20260506133710 | 68 | 266 | 4.0 | 13.0 | 0.00 | 0.29 | 0.00 | 53 | 1046.1 |
| 20260506133440 | 68 | 285 | 4.0 | 13.0 | 0.00 | 0.29 | 0.00 | 52 | 1046.1 |
| 20260506133426 | 68 | 240 | 3.0 | 9.0 | 0.00 | 0.29 | 0.00 | 52 | 1046.1 |
| 20260506132710 | 68 | 235 | 4.0 | 9.0 | 0.00 | 0.29 | 0.00 | 52 | 1046.2 |
| 20260506132700 | 68 | 233 | 4.0 | 9.0 | 0.00 | 0.29 | 0.00 | 51 | 1046.1 |
| 20260506132653 | 68 | 104 | 4.0 | 9.0 | 0.00 | 0.29 | 0.00 | 50 | 1046.2 |
| 20260506132645 | 68 | 103 | 4.0 | 9.0 | 0.00 | 0.29 | 0.00 | 49 | 1046.1 |
| 20260506132634 | 68 | 103 | 4.0 | 9.0 | 0.00 | 0.29 | 0.00 | 48 | 1046.2 |
| 20260506132352 | 68 | 147 | 4.0 | 8.0 | 0.00 | 0.29 | 0.00 | 47 | 1046.1 |
| 20260506132122 | 68 | 126 | 3.0 | 8.0 | 0.00 | 0.29 | 0.00 | 48 | 1046.2 |
| 20260506131854 | 68 | 164 | 3.0 | 8.0 | 0.00 | 0.29 | 0.00 | 49 | 1046.2 |
| 20260506131615 | 68 | 164 | 3.0 | 8.0 | 0.00 | 0.29 | 0.00 | 49 | 1046.3 |
| 20260506131518 | 68 | 164 | 4.0 | 8.0 | 0.00 | 0.29 | 0.00 | 48 | 1046.3 |
| 20260506131413 | 68 | 164 | 4.0 | 10.0 | 0.00 | 0.29 | 0.00 | 50 | 1046.2 |
| 20260506131313 | 68 | 166 | 4.0 | 10.0 | 0.00 | 0.29 | 0.00 | 50 | 1046.3 |
| 20260506131259 | 68 | 166 | 4.0 | 10.0 | 0.00 | 0.29 | 0.00 | 50 | 1046.2 |
| 20260506131247 | 68 | 166 | 4.0 | 10.0 | 0.00 | 0.29 | 0.00 | 50 | 1046.3 |
| 20260506131240 | 68 | 167 | 4.0 | 10.0 | 0.00 | 0.29 | 0.00 | 49 | 1046.3 |
| 20260506131228 | 69 | 167 | 4.0 | 10.0 | 0.00 | 0.29 | 0.00 | 49 | 1046.3 |
| 20260506131003 | 69 | 160 | 4.0 | 10.0 | 0.00 | 0.29 | 0.00 | 48 | 1046.3 |
| 20260506130946 | 69 | 223 | 3.0 | 10.0 | 0.00 | 0.29 | 0.00 | 47 | 1046.3 |
| 20260506130934 | 69 | 225 | 3.0 | 10.0 | 0.00 | 0.29 | 0.00 | 47 | 1046.3 |
| 20260506130924 | 69 | 228 | 3.0 | 10.0 | 0.00 | 0.29 | 0.00 | 47 | 1046.3 |
| 20260506130658 | 69 | 258 | 2.0 | 8.0 | 0.00 | 0.29 | 0.00 | 49 | 1046.4 |
| 20260506130648 | 69 | 269 | 2.0 | 6.0 | 0.00 | 0.29 | 0.00 | 48 | 1046.4 |
| 20260506130640 | 69 | 269 | 2.0 | 6.0 | 0.00 | 0.29 | 0.00 | 47 | 1046.4 |
| 20260506130623 | 69 | 270 | 3.0 | 6.0 | 0.00 | 0.29 | 0.00 | 47 | 1046.3 |
| 20260506130616 | 69 | 270 | 3.0 | 7.0 | 0.00 | 0.29 | 0.00 | 47 | 1046.4 |
| 20260506130343 | 69 | 269 | 4.0 | 9.0 | 0.00 | 0.29 | 0.00 | 48 | 1046.3 |
| 20260506130331 | 69 | 270 | 4.0 | 9.0 | 0.00 | 0.29 | 0.00 | 48 | 1046.3 |
| 20260506125845 | 69 | 270 | 4.0 | 9.0 | 0.00 | 0.29 | 0.00 | 48 | 1046.3 |
| 20260506125339 | 69 | 270 | 5.0 | 9.0 | 0.00 | 0.29 | 0.00 | 49 | 1046.3 |
| 20260506125103 | 69 | 270 | 5.0 | 9.0 | 0.00 | 0.29 | 0.00 | 49 | 1046.4 |
| 20260506125004 | 68 | 270 | 4.0 | 9.0 | 0.00 | 0.29 | 0.00 | 49 | 1046.4 |
| 20260506124904 | 68 | 272 | 4.0 | 9.0 | 0.00 | 0.29 | 0.00 | 50 | 1046.4 |
| 20260506124803 | 68 | 275 | 4.0 | 8.0 | 0.00 | 0.29 | 0.00 | 50 | 1046.4 |
| 20260506124704 | 68 | 263 | 4.0 | 8.0 | 0.00 | 0.29 | 0.00 | 50 | 1046.4 |
| 20260506124620 | 68 | 191 | 4.0 | 7.0 | 0.00 | 0.29 | 0.00 | 51 | 1046.4 |
| 20260506124603 | 68 | 190 | 4.0 | 7.0 | 0.00 | 0.29 | 0.00 | 51 | 1046.4 |
| 20260506124504 | 68 | 189 | 4.0 | 7.0 | 0.00 | 0.29 | 0.00 | 51 | 1046.4 |
| 20260506124440 | 68 | 182 | 4.0 | 8.0 | 0.00 | 0.29 | 0.00 | 51 | 1046.4 |
| 20260506124430 | 67 | 181 | 3.0 | 8.0 | 0.00 | 0.29 | 0.00 | 50 | 1046.4 |
| 20260506124418 | 67 | 181 | 4.0 | 8.0 | 0.00 | 0.29 | 0.00 | 51 | 1046.4 |
| 20260506124405 | 67 | 181 | 3.0 | 8.0 | 0.00 | 0.29 | 0.00 | 50 | 1046.4 |
| 20260506124140 | 68 | 181 | 4.0 | 8.0 | 0.00 | 0.29 | 0.00 | 49 | 1046.3 |
| 20260506124132 | 68 | 182 | 4.0 | 8.0 | 0.00 | 0.29 | 0.00 | 49 | 1046.4 |
| 20260506124125 | 67 | 182 | 3.0 | 8.0 | 0.00 | 0.29 | 0.00 | 51 | 1046.3 |
| 20260506124111 | 67 | 183 | 3.0 | 8.0 | 0.00 | 0.29 | 0.00 | 52 | 1046.3 |
| 20260506124101 | 67 | 183 | 3.0 | 8.0 | 0.00 | 0.29 | 0.00 | 53 | 1046.4 |
| 20260506123333 | 67 | 185 | 3.0 | 8.0 | 0.00 | 0.29 | 0.00 | 55 | 1046.3 |
| 20260506123324 | 66 | 186 | 3.0 | 8.0 | 0.00 | 0.29 | 0.00 | 55 | 1046.3 |
| 20260506123314 | 66 | 174 | 3.0 | 8.0 | 0.00 | 0.29 | 0.00 | 55 | 1046.3 |
| 20260506123303 | 66 | 174 | 3.0 | 8.0 | 0.00 | 0.29 | 0.00 | 53 | 1046.3 |
| 20260506123253 | 66 | 114 | 3.0 | 8.0 | 0.00 | 0.29 | 0.00 | 52 | 1046.3 |
| 20260506122703 | 66 | 110 | 3.0 | 8.0 | 0.00 | 0.29 | 0.00 | 52 | 1046.4 |
| 20260506122650 | 66 | 112 | 3.0 | 8.0 | 0.00 | 0.29 | 0.00 | 52 | 1046.5 |
| 20260506122643 | 66 | 112 | 3.0 | 8.0 | 0.00 | 0.29 | 0.00 | 55 | 1046.5 |
| 20260506122634 | 65 | 99 | 3.0 | 8.0 | 0.00 | 0.29 | 0.00 | 54 | 1046.4 |
| 20260506122627 | 65 | 143 | 3.0 | 7.0 | 0.00 | 0.29 | 0.00 | 54 | 1046.5 |
| 20260506122616 | 65 | 143 | 3.0 | 7.0 | 0.00 | 0.29 | 0.00 | 54 | 1046.5 |
| 20260506122103 | 65 | 102 | 4.0 | 7.0 | 0.00 | 0.29 | 0.00 | 53 | 1046.5 |
| 20260506122006 | 65 | 95 | 4.0 | 7.0 | 0.00 | 0.29 | 0.00 | 53 | 1046.5 |
| 20260506121903 | 65 | 95 | 4.0 | 7.0 | 0.00 | 0.29 | 0.00 | 53 | 1046.5 |
| 20260506121803 | 65 | 157 | 4.0 | 6.0 | 0.00 | 0.29 | 0.00 | 53 | 1046.5 |
| 20260506121749 | 65 | 157 | 4.0 | 6.0 | 0.00 | 0.29 | 0.00 | 54 | 1046.5 |
| 20260506121731 | 65 | 157 | 4.0 | 6.0 | 0.00 | 0.29 | 0.00 | 55 | 1046.6 |
| 20260506121718 | 65 | 157 | 4.0 | 6.0 | 0.00 | 0.29 | 0.00 | 54 | 1046.6 |
| 20260506121710 | 65 | 157 | 3.0 | 6.0 | 0.00 | 0.30 | 0.00 | 52 | 1046.6 |
| 20260506121221 | 65 | 156 | 2.0 | 6.0 | 0.00 | 0.30 | 0.00 | 51 | 1046.6 |
| 20260506121212 | 65 | 158 | 2.0 | 6.0 | 0.00 | 0.30 | 0.00 | 51 | 1046.6 |
| 20260506121147 | 65 | 164 | 2.0 | 5.0 | 0.00 | 0.30 | 0.00 | 52 | 1046.6 |
| 20260506120920 | 65 | 164 | 1.0 | 4.0 | 0.00 | 0.30 | 0.00 | 52 | 1046.6 |
| 20260506120620 | 65 | 164 | 1.0 | 4.0 | 0.00 | 0.30 | 0.00 | 53 | 1046.6 |
| 20260506120556 | 66 | 165 | 1.0 | 5.0 | 0.00 | 0.30 | 0.00 | 53 | 1046.6 |
| 20260506120455 | 66 | 164 | 1.0 | 5.0 | 0.00 | 0.30 | 0.00 | 53 | 1046.6 |
| 20260506120403 | 66 | 165 | 1.0 | 5.0 | 0.00 | 0.30 | 0.00 | 52 | 1046.6 |
| 20260506120353 | 65 | 165 | 1.0 | 5.0 | 0.00 | 0.30 | 0.00 | 51 | 1046.6 |
| 20260506120341 | 66 | 165 | 1.0 | 5.0 | 0.00 | 0.30 | 0.00 | 52 | 1046.6 |
| 20260506120055 | 66 | 165 | 1.0 | 5.0 | 0.00 | 0.30 | 0.00 | 52 | 1046.6 |
| 20260506115955 | 66 | 165 | 1.0 | 5.0 | 0.00 | 0.30 | 0.00 | 53 | 1046.6 |
| 20260506115855 | 66 | 165 | 1.0 | 5.0 | 0.00 | 0.30 | 0.00 | 53 | 1046.6 |
| 20260506115755 | 66 | 165 | 2.0 | 5.0 | 0.00 | 0.30 | 0.00 | 53 | 1046.6 |
| 20260506115655 | 66 | 165 | 2.0 | 5.0 | 0.00 | 0.30 | 0.00 | 52 | 1046.7 |
| 20260506115636 | 66 | 166 | 2.0 | 5.0 | 0.00 | 0.30 | 0.00 | 52 | 1046.6 |
| 20260506115629 | 66 | 165 | 2.0 | 5.0 | 0.00 | 0.30 | 0.00 | 52 | 1046.6 |
| 20260506115619 | 66 | 160 | 2.0 | 5.0 | 0.00 | 0.30 | 0.00 | 55 | 1046.6 |
| 20260506115251 | 66 | 160 | 2.0 | 5.0 | 0.00 | 0.30 | 0.00 | 53 | 1046.6 |
| 20260506115122 | 66 | 160 | 2.0 | 5.0 | 0.00 | 0.30 | 0.00 | 53 | 1046.7 |
| 20260506115054 | 66 | 160 | 2.0 | 5.0 | 0.00 | 0.30 | 0.00 | 52 | 1046.7 |
| 20260506114951 | 66 | 160 | 2.0 | 5.0 | 0.00 | 0.30 | 0.00 | 53 | 1046.6 |
| 20260506114855 | 66 | 160 | 2.0 | 5.0 | 0.00 | 0.30 | 0.00 | 52 | 1046.7 |
| 20260506114751 | 66 | 160 | 2.0 | 5.0 | 0.00 | 0.30 | 0.00 | 52 | 1046.7 |
| 20260506114650 | 66 | 160 | 2.0 | 5.0 | 0.00 | 0.30 | 0.00 | 53 | 1046.7 |
| 20260506114619 | 66 | 160 | 2.0 | 5.0 | 0.00 | 0.30 | 0.00 | 53 | 1046.7 |
| 20260506114552 | 66 | 160 | 2.0 | 5.0 | 0.00 | 0.30 | 0.00 | 53 | 1046.7 |
| 20260506114451 | 66 | 159 | 2.0 | 5.0 | 0.00 | 0.30 | 0.00 | 52 | 1046.7 |
| 20260506114351 | 66 | 159 | 2.0 | 6.0 | 0.00 | 0.30 | 0.00 | 52 | 1046.7 |
| 20260506114252 | 66 | 159 | 3.0 | 6.0 | 0.00 | 0.30 | 0.00 | 53 | 1046.7 |
| 20260506114151 | 66 | 159 | 2.0 | 6.0 | 0.00 | 0.30 | 0.00 | 53 | 1046.7 |
| 20260506114119 | 66 | 159 | 2.0 | 6.0 | 0.00 | 0.30 | 0.00 | 54 | 1046.7 |
| 20260506114052 | 66 | 159 | 2.0 | 6.0 | 0.00 | 0.30 | 0.00 | 54 | 1046.7 |
| 20260506113951 | 66 | 159 | 2.0 | 6.0 | 0.00 | 0.30 | 0.00 | 55 | 1046.7 |
| 20260506113905 | 66 | 159 | 2.0 | 6.0 | 0.00 | 0.30 | 0.00 | 55 | 1046.7 |
| 20260506113856 | 65 | 158 | 2.0 | 6.0 | 0.00 | 0.30 | 0.00 | 55 | 1046.7 |
| 20260506113844 | 65 | 160 | 3.0 | 6.0 | 0.00 | 0.30 | 0.00 | 55 | 1046.7 |
| 20260506113551 | 65 | 159 | 2.0 | 6.0 | 0.00 | 0.30 | 0.00 | 54 | 1046.7 |
| 20260506113451 | 65 | 159 | 2.0 | 6.0 | 0.00 | 0.30 | 0.00 | 55 | 1046.8 |
| 20260506113351 | 65 | 158 | 2.0 | 5.0 | 0.00 | 0.30 | 0.00 | 54 | 1046.7 |
| 20260506113251 | 65 | 157 | 2.0 | 5.0 | 0.00 | 0.30 | 0.00 | 54 | 1046.7 |
| 20260506113151 | 65 | 157 | 2.0 | 6.0 | 0.00 | 0.30 | 0.00 | 53 | 1046.7 |
| 20260506113120 | 65 | 157 | 2.0 | 6.0 | 0.00 | 0.30 | 0.00 | 53 | 1046.7 |
| 20260506113051 | 65 | 156 | 2.0 | 6.0 | 0.00 | 0.30 | 0.00 | 53 | 1046.7 |
| 20260506112951 | 65 | 157 | 3.0 | 7.0 | 0.00 | 0.30 | 0.00 | 54 | 1046.7 |
| 20260506112851 | 65 | 156 | 3.0 | 7.0 | 0.00 | 0.30 | 0.00 | 55 | 1046.7 |
| 20260506112751 | 65 | 157 | 3.0 | 7.0 | 0.00 | 0.30 | 0.00 | 55 | 1046.7 |
| 20260506112643 | 65 | 156 | 3.0 | 7.0 | 0.00 | 0.30 | 0.00 | 55 | 1046.7 |
| 20260506112615 | 65 | 156 | 3.0 | 7.0 | 0.00 | 0.30 | 0.00 | 54 | 1046.7 |
| 20260506112543 | 65 | 156 | 3.0 | 7.0 | 0.00 | 0.30 | 0.00 | 54 | 1046.7 |
| 20260506112443 | 65 | 156 | 3.0 | 7.0 | 0.00 | 0.30 | 0.00 | 53 | 1046.7 |
| 20260506112409 | 65 | 156 | 3.0 | 7.0 | 0.00 | 0.30 | 0.00 | 53 | 1046.7 |
| 20260506112403 | 65 | 156 | 3.0 | 7.0 | 0.00 | 0.30 | 0.00 | 52 | 1046.8 |
| 20260506112349 | 65 | 156 | 3.0 | 7.0 | 0.00 | 0.30 | 0.00 | 54 | 1046.8 |
| 20260506112338 | 65 | 156 | 3.0 | 7.0 | 0.00 | 0.30 | 0.00 | 56 | 1046.8 |
| 20260506112329 | 65 | 156 | 3.0 | 7.0 | 0.00 | 0.31 | 0.00 | 56 | 1046.8 |
| 20260506112058 | 65 | 69 | 2.0 | 5.0 | 0.00 | 0.31 | 0.00 | 57 | 1046.8 |
| 20260506112035 | 65 | 69 | 2.0 | 5.0 | 0.00 | 0.31 | 0.00 | 58 | 1046.8 |
| 20260506111804 | 65 | 69 | 2.0 | 5.0 | 0.00 | 0.31 | 0.00 | 57 | 1046.8 |
| 20260506111443 | 64 | 70 | 2.0 | 5.0 | 0.00 | 0.31 | 0.00 | 55 | 1046.8 |
| 20260506111343 | 64 | 73 | 2.0 | 4.0 | 0.00 | 0.31 | 0.00 | 55 | 1046.8 |
| 20260506111243 | 64 | 74 | 2.0 | 5.0 | 0.00 | 0.31 | 0.00 | 58 | 1046.8 |
| 20260506111143 | 64 | 73 | 2.0 | 7.0 | 0.00 | 0.31 | 0.00 | 58 | 1046.8 |
| 20260506111115 | 64 | 74 | 2.0 | 7.0 | 0.00 | 0.31 | 0.00 | 58 | 1046.8 |
| 20260506111045 | 64 | 74 | 2.0 | 7.0 | 0.00 | 0.31 | 0.00 | 56 | 1046.9 |
| 20260506110954 | 64 | 73 | 2.0 | 7.0 | 0.00 | 0.31 | 0.00 | 56 | 1046.9 |
| 20260506110948 | 64 | 74 | 2.0 | 7.0 | 0.00 | 0.31 | 0.00 | 56 | 1046.8 |
| 20260506110935 | 64 | 74 | 3.0 | 7.0 | 0.00 | 0.31 | 0.00 | 56 | 1046.8 |
| 20260506110926 | 64 | 74 | 3.0 | 7.0 | 0.00 | 0.31 | 0.00 | 55 | 1046.8 |
| 20260506110659 | 65 | 74 | 3.0 | 7.0 | 0.00 | 0.31 | 0.00 | 56 | 1046.8 |
| 20260506110647 | 65 | 73 | 4.0 | 7.0 | 0.00 | 0.31 | 0.00 | 56 | 1046.8 |
| 20260506110421 | 65 | 73 | 3.0 | 7.0 | 0.00 | 0.31 | 0.00 | 55 | 1046.8 |
| 20260506110407 | 65 | 76 | 3.0 | 7.0 | 0.00 | 0.31 | 0.00 | 55 | 1046.8 |
| 20260506110358 | 65 | 76 | 3.0 | 7.0 | 0.00 | 0.31 | 0.00 | 54 | 1046.8 |
| 20260506110106 | 65 | 77 | 3.0 | 7.0 | 0.00 | 0.31 | 0.00 | 54 | 1046.9 |
| 20260506105742 | 65 | 84 | 2.0 | 6.0 | 0.00 | 0.31 | 0.00 | 56 | 1046.8 |
| 20260506105616 | 65 | 83 | 2.0 | 5.0 | 0.00 | 0.31 | 0.00 | 55 | 1046.8 |
| 20260506105601 | 65 | 211 | 2.0 | 5.0 | 0.00 | 0.31 | 0.00 | 55 | 1046.8 |
| 20260506105552 | 65 | 210 | 2.0 | 5.0 | 0.00 | 0.31 | 0.00 | 54 | 1046.8 |
| 20260506105540 | 65 | 210 | 2.0 | 5.0 | 0.00 | 0.31 | 0.00 | 55 | 1046.8 |
| 20260506105309 | 65 | 210 | 2.0 | 5.0 | 0.00 | 0.31 | 0.00 | 56 | 1046.8 |
| 20260506105300 | 65 | 210 | 2.0 | 5.0 | 0.00 | 0.31 | 0.00 | 57 | 1046.8 |
| 20260506104939 | 65 | 210 | 2.0 | 5.0 | 0.00 | 0.31 | 0.00 | 56 | 1046.8 |
| 20260506104839 | 65 | 210 | 3.0 | 5.0 | 0.00 | 0.31 | 0.00 | 57 | 1046.9 |
| 20260506104739 | 65 | 210 | 3.0 | 6.0 | 0.00 | 0.31 | 0.00 | 58 | 1046.9 |
| 20260506104627 | 65 | 210 | 3.0 | 6.0 | 0.00 | 0.31 | 0.00 | 58 | 1046.9 |
| 20260506104619 | 65 | 210 | 3.0 | 6.0 | 0.00 | 0.31 | 0.00 | 58 | 1046.9 |
| 20260506104611 | 65 | 210 | 2.0 | 6.0 | 0.00 | 0.31 | 0.00 | 58 | 1046.8 |
| 20260506104601 | 65 | 209 | 2.0 | 6.0 | 0.00 | 0.31 | 0.00 | 58 | 1046.8 |
| 20260506104555 | 65 | 209 | 2.0 | 6.0 | 0.00 | 0.31 | 0.00 | 57 | 1046.8 |
| 20260506104039 | 65 | 208 | 3.0 | 6.0 | 0.00 | 0.31 | 0.00 | 57 | 1046.8 |
| 20260506103939 | 65 | 208 | 3.0 | 6.0 | 0.00 | 0.31 | 0.00 | 58 | 1046.8 |
| 20260506103839 | 65 | 208 | 3.0 | 7.0 | 0.00 | 0.31 | 0.00 | 58 | 1046.9 |
| 20260506103737 | 65 | 206 | 3.0 | 7.0 | 0.00 | 0.31 | 0.00 | 56 | 1046.9 |
| 20260506103636 | 65 | 205 | 4.0 | 7.0 | 0.00 | 0.31 | 0.00 | 58 | 1046.9 |
| 20260506103611 | 65 | 205 | 4.0 | 9.0 | 0.00 | 0.31 | 0.00 | 58 | 1046.9 |
| 20260506103537 | 65 | 205 | 3.0 | 9.0 | 0.00 | 0.31 | 0.00 | 59 | 1046.9 |
| 20260506103436 | 65 | 204 | 4.0 | 9.0 | 0.00 | 0.31 | 0.00 | 58 | 1046.9 |
| 20260506103337 | 65 | 204 | 4.0 | 9.0 | 0.00 | 0.31 | 0.00 | 58 | 1046.9 |
| 20260506103237 | 65 | 204 | 4.0 | 10.0 | 0.00 | 0.31 | 0.00 | 56 | 1046.9 |
| 20260506103155 | 65 | 200 | 4.0 | 10.0 | 0.00 | 0.31 | 0.00 | 56 | 1047.0 |
| 20260506103144 | 65 | 199 | 4.0 | 10.0 | 0.00 | 0.31 | 0.00 | 56 | 1047.0 |
| 20260506103137 | 65 | 200 | 4.0 | 10.0 | 0.00 | 0.31 | 0.00 | 57 | 1047.0 |
| 20260506103124 | 65 | 199 | 4.0 | 10.0 | 0.00 | 0.31 | 0.00 | 57 | 1046.9 |
| 20260506103115 | 65 | 160 | 4.0 | 10.0 | 0.00 | 0.31 | 0.00 | 56 | 1046.9 |
| 20260506102609 | 65 | 163 | 3.0 | 10.0 | 0.00 | 0.31 | 0.00 | 57 | 1047.0 |
| 20260506102532 | 65 | 221 | 4.0 | 10.0 | 0.00 | 0.31 | 0.00 | 56 | 1047.0 |
| 20260506102455 | 65 | 221 | 4.0 | 10.0 | 0.00 | 0.31 | 0.00 | 55 | 1047.0 |
| 20260506102447 | 66 | 101 | 3.0 | 10.0 | 0.00 | 0.31 | 0.00 | 57 | 1047.0 |
| 20260506102436 | 66 | 240 | 3.0 | 10.0 | 0.00 | 0.31 | 0.00 | 56 | 1047.0 |
| 20260506102200 | 66 | 125 | 3.0 | 10.0 | 0.00 | 0.31 | 0.00 | 56 | 1047.0 |
| 20260506102153 | 66 | 125 | 3.0 | 10.0 | 0.00 | 0.31 | 0.00 | 56 | 1047.0 |
| 20260506102142 | 66 | 127 | 3.0 | 10.0 | 0.00 | 0.31 | 0.00 | 55 | 1047.0 |
| 20260506102135 | 66 | 127 | 3.0 | 10.0 | 0.00 | 0.31 | 0.00 | 56 | 1047.0 |
| 20260506101851 | 66 | 126 | 2.0 | 10.0 | 0.00 | 0.31 | 0.00 | 52 | 1047.0 |
| 20260506101842 | 66 | 127 | 2.0 | 10.0 | 0.00 | 0.31 | 0.00 | 52 | 1047.0 |
| 20260506101612 | 66 | 88 | 2.0 | 7.0 | 0.00 | 0.31 | 0.00 | 50 | 1047.0 |
| 20260506101346 | 66 | 316 | 2.0 | 9.0 | 0.00 | 0.31 | 0.00 | 52 | 1047.0 |
| 20260506101109 | 66 | 316 | 2.0 | 9.0 | 0.00 | 0.31 | 0.00 | 53 | 1047.0 |
| 20260506101014 | 66 | 316 | 2.0 | 9.0 | 0.00 | 0.31 | 0.00 | 54 | 1047.0 |
| 20260506100910 | 66 | 316 | 2.0 | 9.0 | 0.00 | 0.31 | 0.00 | 52 | 1047.0 |
| 20260506100808 | 66 | 316 | 3.0 | 9.0 | 0.00 | 0.31 | 0.00 | 53 | 1047.0 |
| 20260506100704 | 66 | 316 | 2.0 | 9.0 | 0.00 | 0.31 | 0.00 | 54 | 1047.0 |
| 20260506100604 | 66 | 315 | 3.0 | 9.0 | 0.00 | 0.31 | 0.00 | 52 | 1047.1 |
| 20260506100503 | 66 | 314 | 3.0 | 9.0 | 0.00 | 0.31 | 0.00 | 51 | 1047.1 |
| 20260506100404 | 66 | 312 | 3.0 | 9.0 | 0.00 | 0.31 | 0.00 | 52 | 1047.1 |
| 20260506100338 | 65 | 312 | 4.0 | 9.0 | 0.00 | 0.31 | 0.00 | 51 | 1047.1 |
| 20260506100331 | 65 | 291 | 4.0 | 8.0 | 0.00 | 0.31 | 0.00 | 51 | 1047.1 |
| 20260506100318 | 65 | 290 | 4.0 | 8.0 | 0.00 | 0.31 | 0.00 | 50 | 1047.1 |
| 20260506100001 | 65 | 291 | 4.0 | 8.0 | 0.00 | 0.31 | 0.00 | 53 | 1047.1 |
| 20260506095910 | 65 | 290 | 4.0 | 8.0 | 0.00 | 0.31 | 0.00 | 54 | 1047.1 |
| 20260506095903 | 65 | 291 | 4.0 | 8.0 | 0.00 | 0.31 | 0.00 | 53 | 1047.1 |
| 20260506095848 | 65 | 291 | 4.0 | 8.0 | 0.00 | 0.31 | 0.00 | 53 | 1047.2 |
| 20260506095620 | 65 | 293 | 4.0 | 8.0 | 0.00 | 0.31 | 0.00 | 54 | 1047.1 |
| 20260506095611 | 65 | 297 | 4.0 | 8.0 | 0.00 | 0.31 | 0.00 | 54 | 1047.2 |
| 20260506095247 | 66 | 359 | 3.0 | 9.0 | 0.00 | 0.31 | 0.00 | 53 | 1047.2 |
| 20260506095143 | 66 | 359 | 3.0 | 9.0 | 0.00 | 0.31 | 0.00 | 51 | 1047.2 |
| 20260506095103 | 66 | 4 | 3.0 | 9.0 | 0.00 | 0.31 | 0.00 | 53 | 1047.2 |
| 20260506095041 | 66 | 4 | 3.0 | 9.0 | 0.00 | 0.31 | 0.00 | 54 | 1047.2 |
| 20260506094941 | 66 | 233 | 3.0 | 9.0 | 0.00 | 0.31 | 0.00 | 53 | 1047.2 |
| 20260506094841 | 66 | 77 | 4.0 | 9.0 | 0.00 | 0.31 | 0.00 | 51 | 1047.2 |
| 20260506094740 | 66 | 79 | 4.0 | 9.0 | 0.00 | 0.31 | 0.00 | 52 | 1047.2 |
| 20260506094705 | 66 | 282 | 4.0 | 9.0 | 0.00 | 0.31 | 0.00 | 51 | 1047.2 |
| 20260506094654 | 66 | 262 | 4.0 | 9.0 | 0.00 | 0.31 | 0.00 | 52 | 1047.2 |
| 20260506094647 | 66 | 343 | 4.0 | 9.0 | 0.00 | 0.31 | 0.00 | 52 | 1047.2 |
| 20260506094634 | 66 | 312 | 4.0 | 9.0 | 0.00 | 0.31 | 0.00 | 53 | 1047.2 |
| 20260506094626 | 66 | 345 | 4.0 | 9.0 | 0.00 | 0.31 | 0.00 | 52 | 1047.2 |
| 20260506094127 | 65 | 346 | 4.0 | 10.0 | 0.00 | 0.31 | 0.00 | 52 | 1047.3 |
| 20260506094120 | 65 | 343 | 5.0 | 10.0 | 0.00 | 0.31 | 0.00 | 52 | 1047.3 |
| 20260506094111 | 65 | 338 | 5.0 | 11.0 | 0.00 | 0.31 | 0.00 | 53 | 1047.3 |
| 20260506094052 | 65 | 345 | 5.0 | 11.0 | 0.00 | 0.31 | 0.00 | 52 | 1047.2 |
| 20260506093824 | 65 | 359 | 5.0 | 12.0 | 0.00 | 0.31 | 0.00 | 52 | 1047.2 |
| 20260506093532 | 65 | 354 | 5.0 | 12.0 | 0.00 | 0.31 | 0.00 | 52 | 1047.2 |
| 20260506093506 | 65 | 278 | 5.0 | 12.0 | 0.00 | 0.31 | 0.00 | 51 | 1047.2 |
| 20260506093456 | 65 | 293 | 5.0 | 12.0 | 0.00 | 0.31 | 0.00 | 52 | 1047.2 |
| 20260506093205 | 65 | 342 | 5.0 | 12.0 | 0.00 | 0.31 | 0.00 | 51 | 1047.2 |
| 20260506093156 | 65 | 359 | 5.0 | 12.0 | 0.00 | 0.31 | 0.00 | 51 | 1047.2 |
| 20260506092830 | 65 | 350 | 4.0 | 12.0 | 0.00 | 0.31 | 0.00 | 51 | 1047.2 |
| 20260506092731 | 65 | 359 | 5.0 | 11.0 | 0.00 | 0.31 | 0.00 | 50 | 1047.2 |
| 20260506092632 | 65 | 330 | 4.0 | 11.0 | 0.00 | 0.31 | 0.00 | 52 | 1047.2 |
| 20260506092605 | 65 | 332 | 4.0 | 11.0 | 0.00 | 0.31 | 0.00 | 52 | 1047.2 |
| 20260506092529 | 65 | 347 | 4.0 | 10.0 | 0.00 | 0.31 | 0.00 | 52 | 1047.2 |
| 20260506092431 | 65 | 354 | 4.0 | 10.0 | 0.00 | 0.31 | 0.00 | 54 | 1047.2 |
| 20260506092329 | 65 | 312 | 4.0 | 10.0 | 0.00 | 0.31 | 0.00 | 54 | 1047.2 |
| 20260506092229 | 65 | 312 | 4.0 | 10.0 | 0.00 | 0.31 | 0.00 | 53 | 1047.2 |
| 20260506092104 | 65 | 329 | 4.0 | 10.0 | 0.00 | 0.31 | 0.00 | 52 | 1047.2 |
| 20260506092029 | 65 | 328 | 5.0 | 12.0 | 0.00 | 0.31 | 0.00 | 53 | 1047.2 |
| 20260506091929 | 65 | 333 | 5.0 | 12.0 | 0.00 | 0.31 | 0.00 | 52 | 1047.3 |
| 20260506091857 | 65 | 308 | 5.0 | 12.0 | 0.00 | 0.31 | 0.00 | 52 | 1047.3 |
| 20260506091851 | 65 | 283 | 5.0 | 12.0 | 0.00 | 0.31 | 0.00 | 52 | 1047.3 |
| 20260506091838 | 65 | 272 | 5.0 | 12.0 | 0.00 | 0.31 | 0.00 | 53 | 1047.3 |
| 20260506091810 | 65 | 274 | 5.0 | 12.0 | 0.00 | 0.31 | 0.00 | 53 | 1047.3 |
| 20260506091547 | 65 | 274 | 5.0 | 12.0 | 0.00 | 0.31 | 0.00 | 53 | 1047.4 |
| 20260506091227 | 64 | 274 | 5.0 | 12.0 | 0.00 | 0.31 | 0.00 | 54 | 1047.4 |
| 20260506091122 | 64 | 274 | 5.0 | 12.0 | 0.00 | 0.31 | 0.00 | 55 | 1047.4 |
| 20260506091104 | 64 | 272 | 5.0 | 12.0 | 0.00 | 0.31 | 0.00 | 55 | 1047.4 |
| 20260506091025 | 64 | 239 | 4.0 | 11.0 | 0.00 | 0.31 | 0.00 | 55 | 1047.3 |
| 20260506090923 | 64 | 276 | 4.0 | 11.0 | 0.00 | 0.31 | 0.00 | 56 | 1047.3 |
| 20260506090822 | 64 | 264 | 4.0 | 11.0 | 0.00 | 0.31 | 0.00 | 56 | 1047.3 |
| 20260506090718 | 64 | 247 | 3.0 | 8.0 | 0.00 | 0.31 | 0.00 | 56 | 1047.3 |
| 20260506090619 | 64 | 328 | 3.0 | 8.0 | 0.00 | 0.31 | 0.00 | 57 | 1047.3 |
| 20260506090603 | 64 | 331 | 3.0 | 8.0 | 0.00 | 0.31 | 0.00 | 57 | 1047.3 |
| 20260506090518 | 64 | 333 | 3.0 | 8.0 | 0.00 | 0.31 | 0.00 | 57 | 1047.3 |
| 20260506090447 | 64 | 253 | 3.0 | 8.0 | 0.00 | 0.31 | 0.00 | 57 | 1047.3 |
| 20260506090440 | 64 | 251 | 4.0 | 8.0 | 0.00 | 0.31 | 0.00 | 57 | 1047.2 |
| 20260506090104 | 64 | 4 | 3.0 | 11.0 | 0.00 | 0.31 | 0.00 | 56 | 1047.2 |
| 20260506090024 | 64 | 8 | 4.0 | 11.0 | 0.00 | 0.31 | 0.00 | 57 | 1047.3 |
| 20260506085913 | 64 | 9 | 4.0 | 11.0 | 0.00 | 0.31 | 0.00 | 57 | 1047.3 |
| 20260506085817 | 64 | 10 | 4.0 | 11.0 | 0.00 | 0.31 | 0.00 | 58 | 1047.3 |
| 20260506085712 | 64 | 320 | 4.0 | 11.0 | 0.00 | 0.31 | 0.00 | 57 | 1047.3 |
| 20260506085603 | 64 | 320 | 4.0 | 11.0 | 0.00 | 0.31 | 0.00 | 56 | 1047.3 |
| 20260506085515 | 64 | 319 | 4.0 | 11.0 | 0.00 | 0.31 | 0.00 | 55 | 1047.3 |
| 20260506085410 | 64 | 319 | 5.0 | 12.0 | 0.00 | 0.31 | 0.00 | 56 | 1047.3 |
| 20260506085309 | 64 | 324 | 4.0 | 12.0 | 0.00 | 0.31 | 0.00 | 56 | 1047.2 |
| 20260506085223 | 64 | 350 | 4.0 | 12.0 | 0.00 | 0.31 | 0.00 | 57 | 1047.3 |
| 20260506085204 | 63 | 359 | 4.0 | 12.0 | 0.00 | 0.31 | 0.00 | 57 | 1047.2 |
| 20260506085155 | 63 | 359 | 4.0 | 12.0 | 0.00 | 0.31 | 0.00 | 57 | 1047.2 |
| 20260506085146 | 63 | 4 | 4.0 | 12.0 | 0.00 | 0.31 | 0.00 | 58 | 1047.3 |
| 20260506085137 | 63 | 341 | 4.0 | 12.0 | 0.00 | 0.31 | 0.00 | 58 | 1047.3 |
| 20260506084858 | 63 | 336 | 4.0 | 12.0 | 0.00 | 0.31 | 0.00 | 58 | 1047.3 |
| 20260506084631 | 63 | 335 | 4.0 | 12.0 | 0.00 | 0.31 | 0.00 | 58 | 1047.3 |
| 20260506084615 | 63 | 359 | 4.0 | 10.0 | 0.00 | 0.31 | 0.00 | 58 | 1047.2 |
| 20260506084337 | 62 | 4 | 4.0 | 10.0 | 0.00 | 0.31 | 0.00 | 56 | 1047.2 |
| 20260506084108 | 62 | 8 | 4.0 | 10.0 | 0.00 | 0.31 | 0.00 | 57 | 1047.2 |
| 20260506084008 | 62 | 15 | 4.0 | 10.0 | 0.00 | 0.31 | 0.00 | 57 | 1047.2 |
| 20260506083903 | 62 | 293 | 4.0 | 11.0 | 0.00 | 0.31 | 0.00 | 58 | 1047.2 |
| 20260506083844 | 62 | 299 | 5.0 | 11.0 | 0.00 | 0.31 | 0.00 | 57 | 1047.2 |
| 20260506083837 | 62 | 308 | 5.0 | 12.0 | 0.00 | 0.31 | 0.00 | 58 | 1047.2 |
| 20260506083824 | 62 | 310 | 5.0 | 12.0 | 0.00 | 0.31 | 0.00 | 59 | 1047.2 |
| 20260506083501 | 62 | 302 | 5.0 | 12.0 | 0.00 | 0.31 | 0.00 | 59 | 1047.2 |
| 20260506083401 | 62 | 310 | 5.0 | 12.0 | 0.00 | 0.31 | 0.00 | 58 | 1047.1 |
| 20260506083301 | 62 | 310 | 5.0 | 12.0 | 0.00 | 0.31 | 0.00 | 58 | 1047.1 |
| 20260506083200 | 62 | 303 | 5.0 | 12.0 | 0.00 | 0.31 | 0.00 | 57 | 1047.1 |
| 20260506083112 | 62 | 304 | 5.0 | 12.0 | 0.00 | 0.31 | 0.00 | 56 | 1047.1 |
| 20260506083101 | 62 | 304 | 5.0 | 12.0 | 0.00 | 0.31 | 0.00 | 56 | 1047.1 |
| 20260506083034 | 62 | 301 | 5.0 | 12.0 | 0.00 | 0.31 | 0.00 | 58 | 1047.2 |
| 20260506083022 | 62 | 290 | 5.0 | 12.0 | 0.00 | 0.31 | 0.00 | 57 | 1047.2 |
| 20260506082659 | 63 | 308 | 4.0 | 12.0 | 0.00 | 0.31 | 0.00 | 58 | 1047.2 |
| 20260506082614 | 63 | 324 | 4.0 | 12.0 | 0.00 | 0.31 | 0.00 | 58 | 1047.2 |
| 20260506082600 | 63 | 324 | 4.0 | 12.0 | 0.00 | 0.31 | 0.00 | 58 | 1047.2 |
| 20260506082523 | 63 | 318 | 4.0 | 10.0 | 0.00 | 0.31 | 0.00 | 59 | 1047.2 |
| 20260506082515 | 63 | 303 | 4.0 | 10.0 | 0.00 | 0.31 | 0.00 | 59 | 1047.2 |
| 20260506082152 | 63 | 335 | 4.0 | 10.0 | 0.00 | 0.31 | 0.00 | 59 | 1047.2 |
| 20260506082104 | 63 | 334 | 4.0 | 10.0 | 0.00 | 0.31 | 0.00 | 59 | 1047.2 |
| 20260506082053 | 63 | 335 | 4.0 | 10.0 | 0.00 | 0.31 | 0.00 | 59 | 1047.2 |
| 20260506081954 | 63 | 268 | 4.0 | 10.0 | 0.00 | 0.31 | 0.00 | 61 | 1047.2 |
| 20260506081852 | 63 | 267 | 4.0 | 10.0 | 0.00 | 0.31 | 0.00 | 61 | 1047.2 |
| 20260506081747 | 62 | 272 | 3.0 | 10.0 | 0.00 | 0.31 | 0.00 | 61 | 1047.2 |
| 20260506081646 | 62 | 303 | 3.0 | 10.0 | 0.00 | 0.31 | 0.00 | 61 | 1047.2 |
| 20260506081607 | 62 | 274 | 3.0 | 10.0 | 0.00 | 0.31 | 0.00 | 61 | 1047.1 |
| 20260506081547 | 62 | 274 | 3.0 | 10.0 | 0.00 | 0.31 | 0.00 | 61 | 1047.1 |
| 20260506081509 | 62 | 274 | 3.0 | 10.0 | 0.00 | 0.31 | 0.00 | 62 | 1047.1 |
| 20260506081458 | 62 | 278 | 2.0 | 7.0 | 0.00 | 0.31 | 0.00 | 62 | 1047.1 |
| 20260506081452 | 62 | 250 | 2.0 | 7.0 | 0.00 | 0.31 | 0.00 | 63 | 1047.2 |
| 20260506081429 | 62 | 243 | 2.0 | 7.0 | 0.00 | 0.31 | 0.00 | 63 | 1047.1 |
| 20260506081422 | 62 | 243 | 2.0 | 7.0 | 0.00 | 0.31 | 0.00 | 63 | 1047.1 |
| 20260506081415 | 62 | 243 | 2.0 | 7.0 | 0.00 | 0.31 | 0.00 | 64 | 1047.1 |
| 20260506081351 | 62 | 243 | 2.0 | 7.0 | 0.00 | 0.31 | 0.00 | 65 | 1047.1 |
| 20260506080852 | 61 | 241 | 2.0 | 7.0 | 0.00 | 0.31 | 0.00 | 64 | 1047.0 |
| 20260506080845 | 61 | 236 | 2.0 | 7.0 | 0.00 | 0.31 | 0.00 | 64 | 1047.0 |
| 20260506080837 | 61 | 354 | 2.0 | 5.0 | 0.00 | 0.31 | 0.00 | 65 | 1047.0 |
| 20260506080829 | 61 | 12 | 2.0 | 5.0 | 0.00 | 0.31 | 0.00 | 65 | 1047.0 |
| 20260506080559 | 61 | 12 | 2.0 | 5.0 | 0.00 | 0.31 | 0.00 | 65 | 1047.0 |
| 20260506080545 | 61 | 12 | 2.0 | 5.0 | 0.00 | 0.31 | 0.00 | 64 | 1047.0 |
| 20260506080538 | 61 | 12 | 2.0 | 8.0 | 0.00 | 0.31 | 0.00 | 64 | 1046.9 |
| 20260506080316 | 60 | 10 | 2.0 | 8.0 | 0.00 | 0.31 | 0.00 | 66 | 1047.0 |
| 20260506073515 | 59 | 150 | 2.0 | 6.0 | 0.00 | 0.31 | 0.00 | 68 | 1046.8 |
| 20260506073415 | 58 | 246 | 2.0 | 5.0 | 0.00 | 0.31 | 0.00 | 68 | 1046.7 |
| 20260506073316 | 58 | 236 | 2.0 | 5.0 | 0.00 | 0.31 | 0.00 | 68 | 1046.7 |
| 20260506073215 | 58 | 240 | 2.0 | 8.0 | 0.00 | 0.31 | 0.00 | 70 | 1046.7 |
| 20260506073104 | 58 | 247 | 2.0 | 8.0 | 0.00 | 0.31 | 0.00 | 70 | 1046.7 |
| 20260506073018 | 58 | 172 | 3.0 | 8.0 | 0.00 | 0.31 | 0.00 | 70 | 1046.7 |
| 20260506072915 | 58 | 171 | 3.0 | 8.0 | 0.00 | 0.31 | 0.00 | 69 | 1046.7 |
| 20260506072816 | 58 | 172 | 3.0 | 8.0 | 0.00 | 0.31 | 0.00 | 68 | 1046.7 |
| 20260506072715 | 58 | 172 | 3.0 | 8.0 | 0.00 | 0.31 | 0.00 | 69 | 1046.7 |
| 20260506072615 | 58 | 172 | 4.0 | 8.0 | 0.00 | 0.31 | 0.00 | 70 | 1046.7 |
| 20260506072600 | 58 | 172 | 4.0 | 8.0 | 0.00 | 0.31 | 0.00 | 70 | 1046.7 |
| 20260506072521 | 58 | 172 | 4.0 | 8.0 | 0.00 | 0.31 | 0.00 | 70 | 1046.7 |
| 20260506072510 | 58 | 172 | 4.0 | 8.0 | 0.00 | 0.31 | 0.00 | 70 | 1046.7 |
| 20260506072503 | 58 | 170 | 4.0 | 8.0 | 0.00 | 0.31 | 0.00 | 69 | 1046.7 |
| 20260506072449 | 58 | 156 | 4.0 | 9.0 | 0.00 | 0.31 | 0.00 | 69 | 1046.7 |
| 20260506072441 | 58 | 156 | 4.0 | 9.0 | 0.00 | 0.31 | 0.00 | 70 | 1046.7 |
| 20260506072200 | 58 | 156 | 3.0 | 9.0 | 0.00 | 0.31 | 0.00 | 72 | 1046.7 |
| 20260506071934 | 58 | 157 | 3.0 | 9.0 | 0.00 | 0.31 | 0.00 | 72 | 1046.7 |
| 20260506071613 | 58 | 144 | 3.0 | 9.0 | 0.00 | 0.31 | 0.00 | 70 | 1046.7 |
| 20260506071542 | 58 | 133 | 3.0 | 9.0 | 0.00 | 0.31 | 0.00 | 69 | 1046.7 |
| 20260506071510 | 58 | 134 | 3.0 | 9.0 | 0.00 | 0.31 | 0.00 | 70 | 1046.7 |
| 20260506071410 | 58 | 133 | 2.0 | 9.0 | 0.00 | 0.31 | 0.00 | 69 | 1046.6 |
| 20260506071311 | 58 | 134 | 2.0 | 9.0 | 0.00 | 0.31 | 0.00 | 69 | 1046.7 |
| 20260506071209 | 58 | 140 | 2.0 | 8.0 | 0.00 | 0.31 | 0.00 | 69 | 1046.7 |
| 20260506071115 | 58 | 181 | 2.0 | 7.0 | 0.00 | 0.31 | 0.00 | 69 | 1046.7 |
| 20260506071101 | 58 | 182 | 2.0 | 7.0 | 0.00 | 0.31 | 0.00 | 69 | 1046.8 |
| 20260506071051 | 58 | 182 | 2.0 | 7.0 | 0.00 | 0.31 | 0.00 | 70 | 1046.8 |
| 20260506071043 | 58 | 182 | 2.0 | 7.0 | 0.00 | 0.31 | 0.00 | 71 | 1046.7 |
| 20260506071021 | 58 | 286 | 2.0 | 7.0 | 0.00 | 0.31 | 0.00 | 71 | 1046.7 |
| 20260506071012 | 57 | 285 | 2.0 | 7.0 | 0.00 | 0.31 | 0.00 | 71 | 1046.7 |
| 20260506070505 | 57 | 286 | 2.0 | 7.0 | 0.00 | 0.31 | 0.00 | 71 | 1046.7 |
| 20260506070404 | 57 | 285 | 2.0 | 7.0 | 0.00 | 0.31 | 0.00 | 74 | 1046.7 |
| 20260506070304 | 57 | 51 | 2.0 | 4.0 | 0.00 | 0.31 | 0.00 | 73 | 1046.7 |
| 20260506070203 | 57 | 51 | 2.0 | 4.0 | 0.00 | 0.31 | 0.00 | 73 | 1046.7 |
| 20260506070106 | 57 | 51 | 2.0 | 4.0 | 0.00 | 0.31 | 0.00 | 73 | 1046.7 |
| 20260506062301 | 54 | 34 | 2.0 | 4.0 | 0.00 | 0.31 | 0.00 | 78 | 1046.9 |
| 20260506062027 | 54 | 35 | 2.0 | 4.0 | 0.00 | 0.31 | 0.00 | 78 | 1046.9 |
| 20260506061939 | 54 | 35 | 2.0 | 6.0 | 0.00 | 0.31 | 0.00 | 78 | 1046.9 |
| 20260506061839 | 53 | 35 | 2.0 | 6.0 | 0.00 | 0.31 | 0.00 | 78 | 1046.9 |
| 20260506061738 | 53 | 35 | 2.0 | 6.0 | 0.00 | 0.31 | 0.00 | 78 | 1046.9 |
| 20260506061632 | 53 | 35 | 2.0 | 7.0 | 0.00 | 0.31 | 0.00 | 78 | 1046.9 |
| 20260506061525 | 53 | 35 | 2.0 | 7.0 | 0.00 | 0.31 | 0.00 | 79 | 1046.9 |
| 20260506061503 | 53 | 35 | 2.0 | 7.0 | 0.00 | 0.31 | 0.00 | 79 | 1046.9 |
| 20260506061453 | 53 | 36 | 2.0 | 7.0 | 0.00 | 0.31 | 0.00 | 79 | 1046.9 |
| 20260506061128 | 53 | 36 | 2.0 | 7.0 | 0.00 | 0.31 | 0.00 | 80 | 1046.9 |
| 20260506061026 | 53 | 262 | 2.0 | 7.0 | 0.00 | 0.31 | 0.00 | 80 | 1046.9 |
| 20260506061016 | 52 | 205 | 2.0 | 7.0 | 0.00 | 0.31 | 0.00 | 80 | 1046.9 |
| 20260506061008 | 52 | 204 | 2.0 | 7.0 | 0.00 | 0.31 | 0.00 | 81 | 1046.8 |
| 20260506060618 | 52 | 217 | 1.0 | 5.0 | 0.00 | 0.31 | 0.00 | 82 | 1046.9 |
| 20260506060518 | 52 | 151 | 1.0 | 5.0 | 0.00 | 0.31 | 0.00 | 82 | 1046.9 |
| 20260506060418 | 52 | 151 | 1.0 | 5.0 | 0.00 | 0.31 | 0.00 | 84 | 1046.9 |
| 20260506060349 | 52 | 152 | 1.0 | 5.0 | 0.00 | 0.31 | 0.00 | 84 | 1046.8 |
| 20260506060343 | 52 | 150 | 1.0 | 5.0 | 0.00 | 0.31 | 0.00 | 84 | 1046.8 |
| 20260506060333 | 52 | 149 | 2.0 | 5.0 | 0.00 | 0.31 | 0.00 | 84 | 1046.8 |
| 20260506060315 | 51 | 149 | 2.0 | 5.0 | 0.00 | 0.31 | 0.00 | 84 | 1046.8 |
| 20260506050654 | 44 | 159 | 2.0 | 5.0 | 0.00 | 0.31 | 0.00 | 92 | 1046.5 |
| 20260506050643 | 44 | 160 | 2.0 | 5.0 | 0.00 | 0.31 | 0.00 | 92 | 1046.5 |
| 20260506050633 | 44 | 159 | 2.0 | 5.0 | 0.00 | 0.31 | 0.00 | 92 | 1046.5 |
| 20260506050613 | 44 | 160 | 2.0 | 5.0 | 0.00 | 0.31 | 0.00 | 92 | 1046.5 |
| 20260506050603 | 44 | 159 | 2.0 | 5.0 | 0.00 | 0.31 | 0.00 | 92 | 1046.5 |
| 20260506050555 | 44 | 159 | 2.0 | 5.0 | 0.00 | 0.31 | 0.00 | 92 | 1046.4 |
| 20260506050106 | 44 | 160 | 2.0 | 5.0 | 0.00 | 0.31 | 0.00 | 92 | 1046.5 |
| 20260506045005 | 45 | 158 | 2.0 | 6.0 | 0.00 | 0.31 | 0.00 | 92 | 1046.3 |
| 20260506044919 | 45 | 160 | 2.0 | 6.0 | 0.00 | 0.31 | 0.00 | 92 | 1046.3 |
| 20260506044837 | 45 | 159 | 2.0 | 6.0 | 0.00 | 0.31 | 0.00 | 92 | 1046.4 |
| 20260506044830 | 45 | 160 | 2.0 | 6.0 | 0.00 | 0.31 | 0.00 | 92 | 1046.3 |
| 20260506044818 | 45 | 159 | 2.0 | 6.0 | 0.00 | 0.31 | 0.00 | 92 | 1046.3 |
| 20260506044808 | 45 | 159 | 2.0 | 6.0 | 0.00 | 0.31 | 0.00 | 92 | 1046.3 |
| 20260506044538 | 45 | 158 | 2.0 | 6.0 | 0.00 | 0.31 | 0.00 | 92 | 1046.3 |
| 20260506044234 | 45 | 158 | 2.0 | 6.0 | 0.00 | 0.31 | 0.00 | 92 | 1046.2 |
| 20260506044226 | 45 | 159 | 2.0 | 6.0 | 0.00 | 0.31 | 0.00 | 92 | 1046.2 |
| 20260506044203 | 45 | 159 | 3.0 | 6.0 | 0.00 | 0.31 | 0.00 | 92 | 1046.2 |
| 20260506044153 | 45 | 158 | 3.0 | 6.0 | 0.00 | 0.31 | 0.00 | 92 | 1046.2 |
| 20260506043610 | 45 | 158 | 3.0 | 6.0 | 0.00 | 0.31 | 0.00 | 92 | 1046.2 |
| 20260506043538 | 45 | 156 | 3.0 | 6.0 | 0.00 | 0.31 | 0.00 | 92 | 1046.2 |
| 20260506043529 | 45 | 156 | 3.0 | 6.0 | 0.00 | 0.31 | 0.00 | 92 | 1046.2 |
| 20260506043204 | 44 | 155 | 3.0 | 6.0 | 0.00 | 0.31 | 0.00 | 92 | 1046.2 |
| 20260506043105 | 44 | 155 | 3.0 | 6.0 | 0.00 | 0.31 | 0.00 | 92 | 1046.2 |
| 20260506043046 | 44 | 156 | 3.0 | 6.0 | 0.00 | 0.31 | 0.00 | 92 | 1046.2 |
| 20260506043037 | 44 | 155 | 3.0 | 6.0 | 0.00 | 0.31 | 0.00 | 92 | 1046.2 |
| 20260506043029 | 44 | 155 | 3.0 | 6.0 | 0.00 | 0.31 | 0.00 | 92 | 1046.2 |
| 20260506042704 | 45 | 149 | 3.0 | 5.0 | 0.00 | 0.31 | 0.00 | 92 | 1046.2 |
| 20260506042604 | 45 | 149 | 3.0 | 5.0 | 0.00 | 0.31 | 0.00 | 92 | 1046.2 |
| 20260506042509 | 45 | 149 | 3.0 | 5.0 | 0.00 | 0.31 | 0.00 | 92 | 1046.1 |
| 20260506042500 | 45 | 149 | 3.0 | 5.0 | 0.00 | 0.31 | 0.00 | 92 | 1046.1 |
| 20260506042404 | 45 | 149 | 3.0 | 5.0 | 0.00 | 0.31 | 0.00 | 92 | 1046.1 |
| 20260506042305 | 45 | 149 | 3.0 | 5.0 | 0.00 | 0.31 | 0.00 | 92 | 1046.1 |
| 20260506042204 | 45 | 148 | 3.0 | 5.0 | 0.00 | 0.31 | 0.00 | 92 | 1046.1 |
| 20260506042105 | 45 | 149 | 3.0 | 6.0 | 0.00 | 0.31 | 0.00 | 92 | 1046.1 |
| 20260506042011 | 45 | 149 | 3.0 | 6.0 | 0.00 | 0.31 | 0.00 | 92 | 1046.1 |
| 20260506042001 | 45 | 149 | 3.0 | 6.0 | 0.00 | 0.31 | 0.00 | 92 | 1046.1 |
| 20260506041903 | 45 | 149 | 3.0 | 6.0 | 0.00 | 0.31 | 0.00 | 92 | 1046.1 |
| 20260506041803 | 45 | 149 | 3.0 | 6.0 | 0.00 | 0.31 | 0.00 | 92 | 1046.1 |
| 20260506041704 | 45 | 149 | 3.0 | 6.0 | 0.00 | 0.31 | 0.00 | 92 | 1046.1 |
| 20260506041645 | 45 | 149 | 3.0 | 6.0 | 0.00 | 0.31 | 0.00 | 92 | 1046.1 |
| 20260506041639 | 45 | 149 | 3.0 | 6.0 | 0.00 | 0.31 | 0.00 | 92 | 1046.1 |
| 20260506041629 | 45 | 149 | 3.0 | 6.0 | 0.00 | 0.31 | 0.00 | 92 | 1046.1 |
| 20260506041303 | 45 | 149 | 3.0 | 6.0 | 0.00 | 0.31 | 0.00 | 92 | 1046.1 |
| 20260506041203 | 45 | 149 | 3.0 | 6.0 | 0.00 | 0.31 | 0.00 | 92 | 1046.2 |
| 20260506041104 | 45 | 147 | 3.0 | 5.0 | 0.00 | 0.31 | 0.00 | 92 | 1046.2 |
| 20260506041029 | 45 | 147 | 3.0 | 5.0 | 0.00 | 0.31 | 0.00 | 91 | 1046.1 |
| 20260506041017 | 45 | 147 | 3.0 | 5.0 | 0.00 | 0.31 | 0.00 | 91 | 1046.1 |
| 20260506040956 | 45 | 147 | 3.0 | 5.0 | 0.00 | 0.31 | 0.00 | 91 | 1046.2 |
| 20260506040948 | 45 | 147 | 3.0 | 5.0 | 0.00 | 0.31 | 0.00 | 91 | 1046.1 |
| 20260506040940 | 45 | 147 | 3.0 | 5.0 | 0.00 | 0.31 | 0.00 | 91 | 1046.1 |
| 20260506040930 | 45 | 147 | 3.0 | 4.0 | 0.00 | 0.31 | 0.00 | 92 | 1046.2 |
| 20260506040918 | 45 | 146 | 3.0 | 4.0 | 0.00 | 0.31 | 0.00 | 92 | 1046.1 |
| 20260506040637 | 45 | 144 | 3.0 | 4.0 | 0.00 | 0.31 | 0.00 | 91 | 1046.1 |
| 20260506040058 | 45 | 143 | 3.0 | 4.0 | 0.00 | 0.31 | 0.00 | 91 | 1046.1 |
| 20260506040036 | 45 | 143 | 3.0 | 4.0 | 0.00 | 0.31 | 0.00 | 91 | 1046.1 |
| 20260506040028 | 45 | 141 | 2.0 | 4.0 | 0.00 | 0.31 | 0.00 | 91 | 1046.1 |
| 20260506035656 | 45 | 139 | 2.0 | 4.0 | 0.00 | 0.31 | 0.00 | 91 | 1046.0 |
| 20260506035556 | 45 | 139 | 2.0 | 4.0 | 0.00 | 0.31 | 0.00 | 91 | 1046.1 |
| 20260506035456 | 45 | 140 | 2.0 | 4.0 | 0.00 | 0.31 | 0.00 | 91 | 1046.1 |
| 20260506035402 | 45 | 140 | 2.0 | 4.0 | 0.00 | 0.31 | 0.00 | 91 | 1046.1 |
| 20260506035352 | 45 | 139 | 2.0 | 4.0 | 0.00 | 0.31 | 0.00 | 91 | 1046.1 |
| 20260506035343 | 45 | 139 | 2.0 | 3.0 | 0.00 | 0.31 | 0.00 | 91 | 1046.1 |
| 20260506035331 | 45 | 139 | 2.0 | 3.0 | 0.00 | 0.31 | 0.00 | 91 | 1046.0 |
| 20260506035310 | 45 | 139 | 1.0 | 3.0 | 0.00 | 0.31 | 0.00 | 91 | 1046.0 |
| 20260506035305 | 45 | 139 | 1.0 | 3.0 | 0.00 | 0.31 | 0.00 | 91 | 1046.1 |
| 20260506035254 | 45 | 139 | 2.0 | 3.0 | 0.00 | 0.31 | 0.00 | 91 | 1046.1 |
| 20260506035247 | 45 | 139 | 2.0 | 3.0 | 0.00 | 0.31 | 0.00 | 91 | 1046.1 |
| 20260506035007 | 45 | 139 | 2.0 | 3.0 | 0.00 | 0.31 | 0.00 | 91 | 1046.1 |
| 20260506034959 | 45 | 139 | 2.0 | 3.0 | 0.00 | 0.31 | 0.00 | 91 | 1046.1 |
| 20260506034734 | 45 | 139 | 2.0 | 3.0 | 0.00 | 0.31 | 0.00 | 91 | 1046.0 |
| 20260506034726 | 45 | 139 | 2.0 | 3.0 | 0.00 | 0.31 | 0.00 | 91 | 1046.0 |
| 20260506034715 | 45 | 139 | 2.0 | 3.0 | 0.00 | 0.31 | 0.00 | 91 | 1046.0 |
| 20260506034449 | 45 | 139 | 2.0 | 3.0 | 0.00 | 0.31 | 0.00 | 91 | 1046.0 |
| 20260506034435 | 45 | 139 | 2.0 | 3.0 | 0.00 | 0.31 | 0.00 | 91 | 1046.0 |
| 20260506033725 | 45 | 139 | 1.0 | 3.0 | 0.00 | 0.31 | 0.00 | 91 | 1046.0 |
| 20260506033714 | 45 | 139 | 1.0 | 3.0 | 0.00 | 0.31 | 0.00 | 91 | 1046.0 |
| 20260506033702 | 45 | 139 | 1.0 | 3.0 | 0.00 | 0.31 | 0.00 | 91 | 1046.0 |
| 20260506033439 | 45 | 138 | 1.0 | 3.0 | 0.00 | 0.31 | 0.00 | 91 | 1045.9 |
| 20260506032842 | 45 | 139 | 0.0 | 2.0 | 0.00 | 0.31 | 0.00 | 91 | 1045.9 |
| 20260506032743 | 46 | 139 | 0.0 | 2.0 | 0.00 | 0.31 | 0.00 | 91 | 1045.9 |
| 20260506032721 | 46 | 139 | 0.0 | 2.0 | 0.00 | 0.31 | 0.00 | 91 | 1045.9 |
| 20260506032711 | 46 | 139 | 0.0 | 2.0 | 0.00 | 0.31 | 0.00 | 91 | 1045.8 |
| 20260506032701 | 46 | 139 | 0.0 | 2.0 | 0.00 | 0.31 | 0.00 | 91 | 1045.8 |
| 20260506032342 | 46 | 139 | 0.0 | 2.0 | 0.00 | 0.31 | 0.00 | 91 | 1045.9 |
| 20260506032242 | 46 | 139 | 0.0 | 2.0 | 0.00 | 0.31 | 0.00 | 91 | 1045.9 |
| 20260506032226 | 46 | 139 | 1.0 | 2.0 | 0.00 | 0.31 | 0.00 | 91 | 1045.9 |
| 20260506032218 | 46 | 139 | 1.0 | 3.0 | 0.00 | 0.31 | 0.00 | 91 | 1045.8 |
| 20260506032209 | 46 | 139 | 1.0 | 4.0 | 0.00 | 0.31 | 0.00 | 91 | 1045.8 |
| 20260506031838 | 46 | 139 | 1.0 | 4.0 | 0.00 | 0.31 | 0.00 | 91 | 1045.8 |
| 20260506031736 | 46 | 139 | 1.0 | 4.0 | 0.00 | 0.31 | 0.00 | 90 | 1045.8 |
| 20260506031657 | 46 | 139 | 1.0 | 4.0 | 0.00 | 0.31 | 0.00 | 90 | 1045.8 |
| 20260506031648 | 46 | 139 | 1.0 | 4.0 | 0.00 | 0.31 | 0.00 | 90 | 1045.8 |
| 20260506031624 | 46 | 139 | 1.0 | 4.0 | 0.00 | 0.31 | 0.00 | 90 | 1045.8 |
| 20260506031613 | 46 | 139 | 1.0 | 4.0 | 0.00 | 0.31 | 0.00 | 90 | 1045.8 |
| 20260506031032 | 46 | 139 | 0.0 | 4.0 | 0.00 | 0.31 | 0.00 | 90 | 1045.8 |
| 20260506031003 | 46 | 139 | 0.0 | 4.0 | 0.00 | 0.31 | 0.00 | 90 | 1045.8 |
| 20260506030931 | 46 | 139 | 0.0 | 4.0 | 0.00 | 0.31 | 0.00 | 90 | 1045.8 |
| 20260506030832 | 46 | 137 | 0.0 | 0.0 | 0.00 | 0.31 | 0.00 | 90 | 1045.7 |
| 20260506030731 | 46 | 137 | 0.0 | 0.0 | 0.00 | 0.31 | 0.00 | 90 | 1045.7 |
| 20260506030631 | 46 | 138 | 0.0 | 0.0 | 0.00 | 0.31 | 0.00 | 90 | 1045.8 |
| 20260506030531 | 46 | 137 | 0.0 | 0.0 | 0.00 | 0.31 | 0.00 | 90 | 1045.8 |
| 20260506030519 | 46 | 139 | 0.0 | 0.0 | 0.00 | 0.31 | 0.00 | 90 | 1045.8 |
| 20260506030510 | 46 | 137 | 0.0 | 0.0 | 0.00 | 0.31 | 0.00 | 90 | 1045.8 |
| 20260506030501 | 46 | 137 | 0.0 | 0.0 | 0.00 | 0.31 | 0.00 | 90 | 1045.8 |
| 20260506030130 | 47 | 138 | 0.0 | 0.0 | 0.00 | 0.31 | 0.00 | 90 | 1045.8 |
| 20260506030030 | 47 | 137 | 0.0 | 0.0 | 0.00 | 0.31 | 0.00 | 90 | 1045.8 |
| 20260506025929 | 47 | 137 | 0.0 | 0.0 | 0.00 | 0.31 | 0.00 | 90 | 1045.8 |
| 20260506025828 | 47 | 137 | 0.0 | 0.0 | 0.00 | 0.31 | 0.00 | 90 | 1045.8 |
| 20260506025728 | 47 | 138 | 0.0 | 0.0 | 0.00 | 0.31 | 0.00 | 90 | 1045.8 |
| 20260506025630 | 47 | 138 | 0.0 | 0.0 | 0.00 | 0.31 | 0.00 | 90 | 1045.7 |
| 20260506025526 | 47 | 137 | 0.0 | 0.0 | 0.00 | 0.31 | 0.00 | 90 | 1045.7 |
| 20260506025456 | 47 | 137 | 0.0 | 0.0 | 0.00 | 0.31 | 0.00 | 90 | 1045.7 |
| 20260506025426 | 47 | 138 | 0.0 | 0.0 | 0.00 | 0.31 | 0.00 | 90 | 1045.7 |
| 20260506025327 | 47 | 137 | 0.0 | 0.0 | 0.00 | 0.31 | 0.00 | 89 | 1045.7 |
| 20260506025224 | 47 | 138 | 0.0 | 0.0 | 0.00 | 0.31 | 0.00 | 89 | 1045.7 |
| 20260506025124 | 47 | 137 | 0.0 | 0.0 | 0.00 | 0.31 | 0.00 | 89 | 1045.7 |
| 20260506025028 | 47 | 137 | 0.0 | 0.0 | 0.00 | 0.31 | 0.00 | 89 | 1045.7 |
| 20260506025018 | 47 | 137 | 0.0 | 0.0 | 0.00 | 0.31 | 0.00 | 89 | 1045.7 |
| 20260506025009 | 47 | 138 | 0.0 | 0.0 | 0.00 | 0.31 | 0.00 | 89 | 1045.7 |
| 20260506024956 | 47 | 137 | 0.0 | 0.0 | 0.00 | 0.31 | 0.00 | 89 | 1045.6 |
| 20260506024730 | 47 | 137 | 0.0 | 0.0 | 0.00 | 0.31 | 0.00 | 89 | 1045.6 |
| 20260506024718 | 47 | 137 | 0.0 | 0.0 | 0.00 | 0.31 | 0.00 | 89 | 1045.6 |
| 20260506024419 | 47 | 137 | 0.0 | 0.0 | 0.00 | 0.31 | 0.00 | 89 | 1045.6 |
| 20260506024344 | 47 | 137 | 0.0 | 0.0 | 0.00 | 0.31 | 0.00 | 89 | 1045.6 |
| 20260506024336 | 48 | 137 | 0.0 | 0.0 | 0.00 | 0.31 | 0.00 | 89 | 1045.6 |
| 20260506024018 | 48 | 137 | 0.0 | 0.0 | 0.00 | 0.31 | 0.00 | 89 | 1045.6 |
| 20260506023959 | 48 | 138 | 0.0 | 0.0 | 0.00 | 0.31 | 0.00 | 89 | 1045.6 |
| 20260506023916 | 48 | 137 | 0.0 | 0.0 | 0.00 | 0.31 | 0.00 | 88 | 1045.6 |
| 20260506023835 | 48 | 137 | 0.0 | 0.0 | 0.00 | 0.31 | 0.00 | 88 | 1045.6 |
| 20260506023824 | 48 | 137 | 0.0 | 0.0 | 0.00 | 0.31 | 0.00 | 88 | 1045.6 |
| 20260506023816 | 48 | 137 | 0.0 | 0.0 | 0.00 | 0.31 | 0.00 | 88 | 1045.6 |
| 20260506023544 | 48 | 137 | 0.0 | 0.0 | 0.00 | 0.31 | 0.00 | 88 | 1045.6 |
| 20260506023537 | 48 | 137 | 0.0 | 2.0 | 0.00 | 0.31 | 0.00 | 88 | 1045.6 |
| 20260506023527 | 48 | 138 | 0.0 | 2.0 | 0.00 | 0.31 | 0.00 | 88 | 1045.6 |
| 20260506023516 | 48 | 137 | 0.0 | 2.0 | 0.00 | 0.31 | 0.00 | 88 | 1045.6 |
| 20260506023507 | 48 | 138 | 0.0 | 2.0 | 0.00 | 0.31 | 0.00 | 88 | 1045.7 |
| 20260506023452 | 48 | 137 | 0.0 | 2.0 | 0.00 | 0.31 | 0.00 | 87 | 1045.6 |
| 20260506023442 | 48 | 137 | 0.0 | 2.0 | 0.00 | 0.31 | 0.00 | 87 | 1045.6 |
| 20260506023435 | 49 | 138 | 0.0 | 2.0 | 0.00 | 0.31 | 0.00 | 87 | 1045.6 |
| 20260506023156 | 49 | 137 | 1.0 | 3.0 | 0.00 | 0.31 | 0.00 | 88 | 1045.6 |
| 20260506022449 | 49 | 137 | 2.0 | 4.0 | 0.00 | 0.31 | 0.00 | 87 | 1045.6 |
| 20260506022441 | 49 | 139 | 2.0 | 4.0 | 0.00 | 0.31 | 0.00 | 87 | 1045.6 |
| 20260506022117 | 49 | 137 | 2.0 | 4.0 | 0.00 | 0.31 | 0.00 | 87 | 1045.6 |
| 20260506022024 | 49 | 137 | 2.0 | 4.0 | 0.00 | 0.31 | 0.00 | 87 | 1045.6 |
| 20260506021957 | 49 | 137 | 2.0 | 4.0 | 0.00 | 0.31 | 0.00 | 87 | 1045.6 |
| 20260506021916 | 49 | 137 | 2.0 | 4.0 | 0.00 | 0.31 | 0.00 | 87 | 1045.6 |
| 20260506021816 | 49 | 137 | 2.0 | 4.0 | 0.00 | 0.31 | 0.00 | 87 | 1045.6 |
| 20260506021717 | 49 | 137 | 2.0 | 4.0 | 0.00 | 0.31 | 0.00 | 87 | 1045.6 |
| 20260506021656 | 49 | 137 | 2.0 | 4.0 | 0.00 | 0.31 | 0.00 | 87 | 1045.6 |
| 20260506021646 | 49 | 138 | 2.0 | 5.0 | 0.00 | 0.31 | 0.00 | 87 | 1045.6 |
| 20260506021637 | 49 | 138 | 2.0 | 5.0 | 0.00 | 0.31 | 0.00 | 87 | 1045.6 |
| 20260506021312 | 49 | 138 | 2.0 | 5.0 | 0.00 | 0.31 | 0.00 | 87 | 1045.6 |
| 20260506021212 | 49 | 138 | 2.0 | 5.0 | 0.00 | 0.31 | 0.00 | 87 | 1045.6 |
| 20260506021112 | 49 | 138 | 2.0 | 5.0 | 0.00 | 0.31 | 0.00 | 86 | 1045.6 |
| 20260506021053 | 49 | 138 | 2.0 | 5.0 | 0.00 | 0.31 | 0.00 | 86 | 1045.6 |
| 20260506021044 | 49 | 138 | 2.0 | 5.0 | 0.00 | 0.31 | 0.00 | 86 | 1045.6 |
| 20260506021037 | 49 | 138 | 2.0 | 5.0 | 0.00 | 0.31 | 0.00 | 86 | 1045.5 |
| 20260506020711 | 49 | 138 | 2.0 | 5.0 | 0.00 | 0.31 | 0.00 | 86 | 1045.6 |
| 20260506020613 | 49 | 138 | 2.0 | 5.0 | 0.00 | 0.31 | 0.00 | 85 | 1045.6 |
| 20260506020512 | 50 | 281 | 2.0 | 4.0 | 0.00 | 0.31 | 0.00 | 85 | 1045.5 |
| 20260506020457 | 50 | 281 | 2.0 | 4.0 | 0.00 | 0.31 | 0.00 | 85 | 1045.5 |
| 20260506020412 | 50 | 280 | 2.0 | 8.0 | 0.00 | 0.31 | 0.00 | 85 | 1045.5 |
| 20260506020312 | 50 | 281 | 2.0 | 8.0 | 0.00 | 0.31 | 0.00 | 85 | 1045.5 |
| 20260506020212 | 50 | 280 | 2.0 | 8.0 | 0.00 | 0.31 | 0.00 | 85 | 1045.5 |
| 20260506020147 | 50 | 280 | 2.0 | 8.0 | 0.00 | 0.31 | 0.00 | 85 | 1045.5 |
| 20260506020138 | 50 | 281 | 2.0 | 8.0 | 0.00 | 0.31 | 0.00 | 84 | 1045.5 |
| 20260506020128 | 50 | 282 | 2.0 | 8.0 | 0.00 | 0.31 | 0.00 | 84 | 1045.5 |
| 20260506020117 | 50 | 282 | 2.0 | 8.0 | 0.00 | 0.31 | 0.00 | 84 | 1045.4 |
| 20260506015847 | 50 | 281 | 1.0 | 8.0 | 0.00 | 0.31 | 0.00 | 84 | 1045.4 |
| 20260506015512 | 50 | 281 | 1.0 | 8.0 | 0.00 | 0.31 | 0.00 | 84 | 1045.4 |
| 20260506015456 | 50 | 282 | 1.0 | 8.0 | 0.00 | 0.31 | 0.00 | 84 | 1045.4 |
| 20260506015414 | 50 | 292 | 1.0 | 5.0 | 0.00 | 0.31 | 0.00 | 84 | 1045.4 |
| 20260506015312 | 50 | 290 | 1.0 | 5.0 | 0.00 | 0.31 | 0.00 | 85 | 1045.4 |
| 20260506015212 | 50 | 289 | 1.0 | 9.0 | 0.00 | 0.31 | 0.00 | 85 | 1045.4 |
| 20260506015112 | 50 | 289 | 1.0 | 9.0 | 0.00 | 0.31 | 0.00 | 85 | 1045.4 |
| 20260506015012 | 50 | 290 | 1.0 | 9.0 | 0.00 | 0.31 | 0.00 | 85 | 1045.4 |
| 20260506014957 | 50 | 289 | 1.0 | 9.0 | 0.00 | 0.31 | 0.00 | 85 | 1045.4 |
| 20260506014912 | 50 | 290 | 1.0 | 9.0 | 0.00 | 0.31 | 0.00 | 85 | 1045.4 |
| 20260506014845 | 50 | 289 | 2.0 | 9.0 | 0.00 | 0.31 | 0.00 | 85 | 1045.4 |
| 20260506014838 | 50 | 289 | 2.0 | 9.0 | 0.00 | 0.31 | 0.00 | 85 | 1045.4 |
| 20260506014512 | 50 | 289 | 2.0 | 9.0 | 0.00 | 0.31 | 0.00 | 85 | 1045.4 |
| 20260506014457 | 50 | 289 | 2.0 | 9.0 | 0.00 | 0.31 | 0.00 | 85 | 1045.4 |
| 20260506014413 | 50 | 289 | 3.0 | 9.0 | 0.00 | 0.31 | 0.00 | 85 | 1045.4 |
| 20260506014308 | 50 | 289 | 3.0 | 10.0 | 0.00 | 0.31 | 0.00 | 85 | 1045.4 |
| 20260506014209 | 50 | 292 | 3.0 | 10.0 | 0.00 | 0.31 | 0.00 | 85 | 1045.4 |
| 20260506014110 | 50 | 292 | 3.0 | 10.0 | 0.00 | 0.31 | 0.00 | 85 | 1045.2 |
| 20260506014009 | 50 | 292 | 3.0 | 10.0 | 0.00 | 0.31 | 0.00 | 85 | 1045.2 |
| 20260506013956 | 50 | 292 | 3.0 | 10.0 | 0.00 | 0.31 | 0.00 | 85 | 1045.2 |
| 20260506013908 | 50 | 292 | 4.0 | 10.0 | 0.00 | 0.31 | 0.00 | 86 | 1045.2 |
| 20260506013807 | 50 | 292 | 4.0 | 10.0 | 0.00 | 0.31 | 0.00 | 86 | 1045.2 |
| 20260506013708 | 50 | 292 | 4.0 | 10.0 | 0.00 | 0.31 | 0.00 | 86 | 1045.2 |
| 20260506013607 | 50 | 292 | 4.0 | 10.0 | 0.00 | 0.31 | 0.00 | 86 | 1045.2 |
| 20260506013508 | 50 | 290 | 4.0 | 10.0 | 0.00 | 0.31 | 0.00 | 87 | 1045.2 |
| 20260506013457 | 50 | 291 | 4.0 | 10.0 | 0.00 | 0.31 | 0.00 | 87 | 1045.2 |
| 20260506013408 | 50 | 300 | 4.0 | 10.0 | 0.00 | 0.31 | 0.00 | 87 | 1045.2 |
| 20260506013308 | 50 | 317 | 4.0 | 8.0 | 0.00 | 0.31 | 0.00 | 87 | 1045.1 |
| 20260506013208 | 50 | 318 | 3.0 | 8.0 | 0.00 | 0.31 | 0.00 | 88 | 1045.2 |
| 20260506013150 | 49 | 321 | 3.0 | 8.0 | 0.00 | 0.31 | 0.00 | 88 | 1045.2 |
| 20260506013141 | 49 | 320 | 3.0 | 8.0 | 0.00 | 0.31 | 0.00 | 89 | 1045.2 |
| 20260506013130 | 49 | 321 | 3.0 | 8.0 | 0.00 | 0.31 | 0.00 | 89 | 1045.2 |
| 20260506012808 | 49 | 323 | 3.0 | 8.0 | 0.00 | 0.31 | 0.00 | 89 | 1045.2 |
| 20260506012709 | 49 | 304 | 3.0 | 7.0 | 0.00 | 0.31 | 0.00 | 89 | 1045.1 |
| 20260506012608 | 49 | 305 | 2.0 | 7.0 | 0.00 | 0.31 | 0.00 | 90 | 1045.2 |
| 20260506012508 | 49 | 295 | 2.0 | 7.0 | 0.00 | 0.31 | 0.00 | 90 | 1045.2 |
| 20260506012458 | 49 | 295 | 2.0 | 7.0 | 0.00 | 0.31 | 0.00 | 90 | 1045.2 |
| 20260506012407 | 49 | 295 | 2.0 | 5.0 | 0.00 | 0.31 | 0.00 | 90 | 1045.2 |
| 20260506012308 | 49 | 295 | 1.0 | 5.0 | 0.00 | 0.31 | 0.00 | 90 | 1045.1 |
| 20260506012241 | 49 | 295 | 1.0 | 5.0 | 0.00 | 0.31 | 0.00 | 90 | 1045.1 |
| 20260506012233 | 49 | 295 | 1.0 | 5.0 | 0.00 | 0.31 | 0.00 | 90 | 1045.2 |
| 20260506011957 | 49 | 293 | 1.0 | 5.0 | 0.00 | 0.31 | 0.00 | 90 | 1045.2 |
| 20260506011908 | 49 | 295 | 1.0 | 3.0 | 0.00 | 0.31 | 0.00 | 90 | 1045.1 |
| 20260506011809 | 49 | 295 | 1.0 | 2.0 | 0.00 | 0.31 | 0.00 | 90 | 1045.1 |
| 20260506011707 | 49 | 295 | 1.0 | 2.0 | 0.00 | 0.31 | 0.00 | 90 | 1045.2 |
| 20260506011608 | 49 | 295 | 1.0 | 2.0 | 0.00 | 0.31 | 0.00 | 90 | 1045.2 |
| 20260506011508 | 49 | 295 | 1.0 | 2.0 | 0.00 | 0.31 | 0.00 | 90 | 1045.1 |
| 20260506011456 | 49 | 295 | 1.0 | 2.0 | 0.00 | 0.31 | 0.00 | 90 | 1045.1 |
| 20260506011408 | 49 | 295 | 1.0 | 2.0 | 0.00 | 0.31 | 0.00 | 90 | 1045.2 |
| 20260506011307 | 49 | 359 | 1.0 | 2.0 | 0.00 | 0.31 | 0.00 | 90 | 1045.2 |
| 20260506011208 | 49 | 295 | 1.0 | 2.0 | 0.00 | 0.31 | 0.00 | 90 | 1045.2 |
| 20260506011149 | 49 | 295 | 1.0 | 2.0 | 0.00 | 0.31 | 0.00 | 90 | 1045.2 |
| 20260506011139 | 49 | 295 | 1.0 | 3.0 | 0.00 | 0.31 | 0.00 | 90 | 1045.4 |
| 20260506011130 | 49 | 295 | 1.0 | 3.0 | 0.00 | 0.31 | 0.00 | 90 | 1045.4 |
| 20260506010804 | 49 | 295 | 1.0 | 3.0 | 0.00 | 0.31 | 0.00 | 90 | 1045.4 |
| 20260506010704 | 49 | 295 | 1.0 | 3.0 | 0.00 | 0.31 | 0.00 | 90 | 1045.4 |
| 20260506010606 | 49 | 295 | 1.0 | 3.0 | 0.00 | 0.31 | 0.00 | 91 | 1045.4 |
| 20260506010507 | 49 | 295 | 1.0 | 4.0 | 0.00 | 0.31 | 0.00 | 91 | 1045.4 |
| 20260506010456 | 49 | 295 | 1.0 | 4.0 | 0.00 | 0.31 | 0.00 | 91 | 1045.4 |
| 20260506010405 | 49 | 295 | 1.0 | 9.0 | 0.00 | 0.31 | 0.00 | 91 | 1045.4 |
| 20260506010304 | 49 | 294 | 1.0 | 9.0 | 0.00 | 0.31 | 0.00 | 91 | 1045.4 |
| 20260506010227 | 49 | 294 | 1.0 | 9.0 | 0.00 | 0.31 | 0.00 | 91 | 1045.4 |
| 20260506010219 | 49 | 295 | 2.0 | 9.0 | 0.00 | 0.31 | 0.00 | 92 | 1045.4 |
| 20260506010206 | 49 | 295 | 2.0 | 9.0 | 0.00 | 0.31 | 0.00 | 92 | 1045.4 |
| 20260506010157 | 49 | 294 | 2.0 | 9.0 | 0.00 | 0.31 | 0.00 | 92 | 1045.4 |
| 20260506010145 | 49 | 295 | 2.0 | 9.0 | 0.00 | 0.31 | 0.00 | 92 | 1045.4 |
| 20260506005605 | 49 | 294 | 3.0 | 9.0 | 0.00 | 0.31 | 0.00 | 93 | 1045.5 |
| 20260506005506 | 49 | 299 | 2.0 | 9.0 | 0.00 | 0.31 | 0.00 | 93 | 1045.4 |
| 20260506005457 | 49 | 300 | 2.0 | 9.0 | 0.00 | 0.31 | 0.00 | 93 | 1045.4 |
| 20260506005405 | 49 | 273 | 2.0 | 9.0 | 0.00 | 0.31 | 0.00 | 93 | 1045.4 |
| 20260506005336 | 49 | 272 | 2.0 | 9.0 | 0.00 | 0.31 | 0.00 | 93 | 1045.5 |
| 20260506005329 | 49 | 272 | 2.0 | 9.0 | 0.00 | 0.31 | 0.00 | 93 | 1045.4 |
| 20260506005005 | 48 | 273 | 3.0 | 9.0 | 0.00 | 0.31 | 0.00 | 93 | 1045.4 |
| 20260506004956 | 48 | 272 | 3.0 | 9.0 | 0.00 | 0.31 | 0.00 | 93 | 1045.4 |
| 20260506004923 | 48 | 272 | 3.0 | 9.0 | 0.00 | 0.31 | 0.00 | 93 | 1045.4 |
| 20260506004915 | 48 | 306 | 3.0 | 8.0 | 0.00 | 0.31 | 0.00 | 93 | 1045.4 |
| 20260506004857 | 48 | 258 | 3.0 | 9.0 | 0.00 | 0.31 | 0.00 | 93 | 1045.5 |
| 20260506004620 | 48 | 258 | 3.0 | 9.0 | 0.00 | 0.31 | 0.00 | 93 | 1045.5 |
| 20260506004253 | 47 | 258 | 2.0 | 9.0 | 0.00 | 0.31 | 0.00 | 93 | 1045.5 |
| 20260506004153 | 47 | 258 | 2.0 | 9.0 | 0.00 | 0.31 | 0.00 | 93 | 1045.5 |
| 20260506004049 | 47 | 294 | 2.0 | 9.0 | 0.00 | 0.31 | 0.00 | 93 | 1045.5 |
| 20260506004001 | 47 | 294 | 1.0 | 9.0 | 0.00 | 0.31 | 0.00 | 93 | 1045.5 |
| 20260506003948 | 47 | 293 | 1.0 | 9.0 | 0.00 | 0.31 | 0.00 | 93 | 1045.5 |
| 20260506003848 | 47 | 290 | 1.0 | 9.0 | 0.00 | 0.31 | 0.00 | 93 | 1045.5 |
| 20260506003748 | 47 | 287 | 1.0 | 9.0 | 0.00 | 0.31 | 0.00 | 93 | 1045.5 |
| 20260506003647 | 47 | 276 | 1.0 | 3.0 | 0.00 | 0.31 | 0.00 | 93 | 1045.5 |
| 20260506003623 | 47 | 275 | 1.0 | 3.0 | 0.00 | 0.31 | 0.00 | 93 | 1045.5 |
| 20260506003612 | 47 | 275 | 1.0 | 3.0 | 0.00 | 0.31 | 0.00 | 93 | 1045.5 |
| 20260506003605 | 47 | 276 | 1.0 | 3.0 | 0.00 | 0.31 | 0.00 | 93 | 1045.4 |
| 20260506003242 | 47 | 275 | 1.0 | 3.0 | 0.00 | 0.31 | 0.00 | 93 | 1045.5 |
| 20260506003146 | 47 | 276 | 1.0 | 3.0 | 0.00 | 0.31 | 0.00 | 93 | 1045.5 |
| 20260506003136 | 47 | 275 | 1.0 | 4.0 | 0.00 | 0.31 | 0.00 | 93 | 1045.5 |
| 20260506003120 | 47 | 275 | 1.0 | 4.0 | 0.00 | 0.31 | 0.00 | 93 | 1045.5 |
| 20260506003106 | 47 | 275 | 1.0 | 4.0 | 0.00 | 0.31 | 0.00 | 93 | 1045.5 |
| 20260506003100 | 47 | 276 | 1.0 | 4.0 | 0.00 | 0.31 | 0.00 | 93 | 1045.5 |
| 20260506002831 | 47 | 275 | 1.0 | 4.0 | 0.00 | 0.31 | 0.00 | 93 | 1045.6 |
| 20260506002820 | 47 | 276 | 1.0 | 4.0 | 0.00 | 0.31 | 0.00 | 93 | 1045.6 |
| 20260506002553 | 47 | 275 | 0.0 | 4.0 | 0.00 | 0.31 | 0.00 | 93 | 1045.6 |
| 20260506002531 | 47 | 275 | 0.0 | 4.0 | 0.00 | 0.31 | 0.00 | 93 | 1045.6 |
| 20260506002301 | 47 | 276 | 0.0 | 1.0 | 0.00 | 0.31 | 0.00 | 92 | 1045.6 |
| 20260506002253 | 47 | 276 | 0.0 | 2.0 | 0.00 | 0.31 | 0.00 | 92 | 1045.6 |
| 20260506002023 | 47 | 275 | 1.0 | 2.0 | 0.00 | 0.31 | 0.00 | 92 | 1045.7 |
| 20260506002008 | 47 | 275 | 1.0 | 3.0 | 0.00 | 0.31 | 0.00 | 92 | 1045.6 |
| 20260506002000 | 47 | 276 | 1.0 | 3.0 | 0.00 | 0.31 | 0.00 | 93 | 1045.7 |
| 20260506001952 | 47 | 277 | 1.0 | 3.0 | 0.00 | 0.31 | 0.00 | 93 | 1045.7 |
| 20260506001728 | 47 | 275 | 1.0 | 3.0 | 0.00 | 0.31 | 0.00 | 93 | 1045.7 |
| 20260506001719 | 47 | 276 | 1.0 | 3.0 | 0.00 | 0.31 | 0.00 | 93 | 1045.7 |
| 20260506001706 | 47 | 276 | 1.0 | 3.0 | 0.00 | 0.31 | 0.00 | 93 | 1045.7 |
| 20260506001440 | 47 | 276 | 1.0 | 3.0 | 0.00 | 0.31 | 0.00 | 93 | 1045.8 |
| 20260506001431 | 47 | 276 | 1.0 | 3.0 | 0.00 | 0.31 | 0.00 | 93 | 1045.8 |
| 20260506001204 | 47 | 276 | 1.0 | 3.0 | 0.00 | 0.31 | 0.00 | 93 | 1045.8 |
| 20260506001153 | 47 | 276 | 1.0 | 2.0 | 0.00 | 0.31 | 0.00 | 93 | 1045.8 |
| 20260506000924 | 47 | 276 | 0.0 | 2.0 | 0.00 | 0.31 | 0.00 | 92 | 1045.8 |
| 20260506000913 | 47 | 275 | 1.0 | 2.0 | 0.00 | 0.31 | 0.00 | 92 | 1045.9 |
| 20260506000652 | 47 | 276 | 0.0 | 2.0 | 0.00 | 0.31 | 0.00 | 92 | 1045.9 |
| 20260506000204 | 48 | 275 | 1.0 | 3.0 | 0.00 | 0.31 | 0.00 | 92 | 1045.9 |
| 20260505235916 | 48 | 275 | 1.0 | 3.0 | 0.00 | 0.31 | 0.00 | 92 | 1045.9 |
| 20260505235833 | 48 | 276 | 1.0 | 3.0 | 0.00 | 0.31 | 0.00 | 92 | 1046.0 |
| 20260505235827 | 48 | 276 | 1.0 | 3.0 | 0.00 | 0.31 | 0.00 | 92 | 1046.0 |
| 20260505235508 | 48 | 276 | 1.0 | 3.0 | 0.00 | 0.31 | 0.00 | 93 | 1046.0 |
| 20260505235450 | 48 | 276 | 1.0 | 3.0 | 0.00 | 0.31 | 0.00 | 93 | 1046.0 |
| 20260505235443 | 48 | 275 | 1.0 | 3.0 | 0.00 | 0.31 | 0.00 | 93 | 1046.0 |
| 20260505235104 | 48 | 276 | 1.0 | 3.0 | 0.00 | 0.31 | 0.00 | 93 | 1046.0 |
| 20260505235003 | 48 | 276 | 1.0 | 3.0 | 0.00 | 0.31 | 0.00 | 93 | 1046.0 |
| 20260505234941 | 48 | 276 | 1.0 | 3.0 | 0.00 | 0.31 | 0.00 | 93 | 1046.0 |
| 20260505234903 | 48 | 275 | 1.0 | 3.0 | 0.00 | 0.31 | 0.00 | 93 | 1046.0 |
| 20260505234803 | 48 | 276 | 1.0 | 3.0 | 0.00 | 0.31 | 0.00 | 93 | 1046.0 |
| 20260505234704 | 48 | 275 | 2.0 | 3.0 | 0.00 | 0.31 | 0.00 | 93 | 1046.0 |
| 20260505234604 | 48 | 276 | 2.0 | 3.0 | 0.00 | 0.31 | 0.00 | 93 | 1046.0 |
| 20260505234503 | 48 | 276 | 2.0 | 3.0 | 0.00 | 0.31 | 0.00 | 93 | 1046.0 |
| 20260505234440 | 48 | 275 | 2.0 | 3.0 | 0.00 | 0.31 | 0.00 | 93 | 1046.1 |
| 20260505234404 | 48 | 275 | 2.0 | 3.0 | 0.00 | 0.31 | 0.00 | 92 | 1046.1 |
| 20260505234303 | 48 | 276 | 2.0 | 3.0 | 0.00 | 0.31 | 0.00 | 92 | 1046.0 |
| 20260505234219 | 48 | 276 | 2.0 | 3.0 | 0.00 | 0.31 | 0.00 | 92 | 1046.0 |
| 20260505234211 | 48 | 276 | 2.0 | 3.0 | 0.00 | 0.31 | 0.00 | 92 | 1046.1 |
| 20260505234159 | 48 | 275 | 2.0 | 3.0 | 0.00 | 0.31 | 0.00 | 92 | 1046.1 |
| 20260505233903 | 48 | 276 | 2.0 | 3.0 | 0.00 | 0.31 | 0.00 | 92 | 1046.1 |
| 20260505233803 | 48 | 275 | 2.0 | 3.0 | 0.00 | 0.31 | 0.00 | 92 | 1046.1 |
| 20260505233705 | 48 | 276 | 1.0 | 3.0 | 0.00 | 0.31 | 0.00 | 92 | 1046.1 |
| 20260505233604 | 48 | 275 | 1.0 | 3.0 | 0.00 | 0.31 | 0.00 | 92 | 1046.1 |
| 20260505233504 | 48 | 275 | 1.0 | 3.0 | 0.00 | 0.31 | 0.00 | 92 | 1046.1 |
| 20260505233436 | 48 | 276 | 1.0 | 3.0 | 0.00 | 0.31 | 0.00 | 92 | 1046.1 |
| 20260505233404 | 48 | 276 | 1.0 | 3.0 | 0.00 | 0.31 | 0.00 | 92 | 1046.1 |
| 20260505233304 | 48 | 275 | 1.0 | 3.0 | 0.00 | 0.31 | 0.00 | 93 | 1046.1 |
| 20260505233204 | 49 | 275 | 1.0 | 3.0 | 0.00 | 0.31 | 0.00 | 93 | 1046.1 |
| 20260505233109 | 49 | 276 | 1.0 | 2.0 | 0.00 | 0.31 | 0.00 | 93 | 1046.1 |
| 20260505233101 | 49 | 276 | 1.0 | 3.0 | 0.00 | 0.31 | 0.00 | 93 | 1046.1 |
| 20260505233045 | 49 | 276 | 1.0 | 3.0 | 0.00 | 0.31 | 0.00 | 93 | 1046.1 |
| 20260505233029 | 49 | 276 | 0.0 | 3.0 | 0.00 | 0.31 | 0.00 | 93 | 1046.0 |
| 20260505233020 | 49 | 276 | 0.0 | 3.0 | 0.00 | 0.31 | 0.00 | 93 | 1046.0 |
| 20260505232526 | 49 | 276 | 1.0 | 3.0 | 0.00 | 0.31 | 0.00 | 93 | 1046.0 |
| 20260505232518 | 49 | 276 | 1.0 | 3.0 | 0.00 | 0.31 | 0.00 | 93 | 1046.0 |
| 20260505232505 | 49 | 276 | 1.0 | 3.0 | 0.00 | 0.31 | 0.00 | 93 | 1046.0 |
| 20260505232455 | 49 | 276 | 1.0 | 4.0 | 0.00 | 0.31 | 0.00 | 92 | 1046.1 |
| 20260505232447 | 49 | 276 | 1.0 | 4.0 | 0.00 | 0.31 | 0.00 | 92 | 1046.0 |
| 20260505232435 | 49 | 276 | 1.0 | 4.0 | 0.00 | 0.31 | 0.00 | 92 | 1046.0 |
| 20260505232155 | 49 | 275 | 1.0 | 4.0 | 0.00 | 0.31 | 0.00 | 92 | 1046.0 |
| 20260505232146 | 49 | 276 | 1.0 | 4.0 | 0.00 | 0.31 | 0.00 | 92 | 1046.0 |
| 20260505231920 | 49 | 275 | 1.0 | 4.0 | 0.00 | 0.31 | 0.00 | 92 | 1045.9 |
| 20260505231906 | 49 | 275 | 1.0 | 4.0 | 0.00 | 0.31 | 0.00 | 92 | 1045.9 |
| 20260505231852 | 49 | 276 | 1.0 | 4.0 | 0.00 | 0.31 | 0.00 | 92 | 1046.0 |
| 20260505231052 | 49 | 276 | 1.0 | 2.0 | 0.00 | 0.31 | 0.00 | 93 | 1045.9 |
| 20260505230952 | 49 | 275 | 1.0 | 2.0 | 0.00 | 0.31 | 0.00 | 92 | 1045.9 |
| 20260505230933 | 49 | 276 | 1.0 | 2.0 | 0.00 | 0.31 | 0.00 | 92 | 1045.9 |
| 20260505230852 | 49 | 276 | 1.0 | 2.0 | 0.00 | 0.31 | 0.00 | 92 | 1045.9 |
| 20260505230752 | 49 | 275 | 1.0 | 2.0 | 0.00 | 0.31 | 0.00 | 92 | 1045.9 |
| 20260505230653 | 49 | 276 | 1.0 | 2.0 | 0.00 | 0.31 | 0.00 | 93 | 1045.9 |
| 20260505230550 | 49 | 275 | 1.0 | 2.0 | 0.00 | 0.31 | 0.00 | 93 | 1046.0 |
| 20260505230449 | 49 | 275 | 1.0 | 2.0 | 0.00 | 0.31 | 0.00 | 93 | 1045.9 |
| 20260505230432 | 49 | 276 | 1.0 | 2.0 | 0.00 | 0.31 | 0.00 | 93 | 1045.9 |
| 20260505230348 | 49 | 276 | 1.0 | 2.0 | 0.00 | 0.31 | 0.00 | 93 | 1045.9 |
| 20260505230246 | 49 | 275 | 1.0 | 2.0 | 0.00 | 0.31 | 0.00 | 93 | 1045.9 |
| 20260505230146 | 49 | 275 | 1.0 | 3.0 | 0.00 | 0.31 | 0.00 | 93 | 1045.9 |
| 20260505230050 | 49 | 276 | 1.0 | 3.0 | 0.00 | 0.31 | 0.00 | 93 | 1045.9 |
| 20260505230040 | 49 | 276 | 1.0 | 3.0 | 0.00 | 0.31 | 0.00 | 93 | 1045.9 |
| 20260505230031 | 49 | 275 | 1.0 | 3.0 | 0.00 | 0.31 | 0.00 | 93 | 1045.9 |
| 20260505230023 | 49 | 276 | 1.0 | 3.0 | 0.00 | 0.31 | 0.00 | 93 | 1045.9 |
| 20260505230012 | 49 | 275 | 2.0 | 3.0 | 0.00 | 0.31 | 0.00 | 93 | 1045.9 |
| 20260505230004 | 49 | 275 | 2.0 | 4.0 | 0.00 | 0.31 | 0.00 | 93 | 1045.9 |
| 20260505225947 | 49 | 276 | 2.0 | 4.0 | 0.00 | 0.31 | 0.00 | 93 | 1045.9 |
| 20260505225722 | 49 | 276 | 3.0 | 6.0 | 0.00 | 0.31 | 0.00 | 93 | 1045.9 |
| 20260505225225 | 49 | 274 | 3.0 | 6.0 | 0.00 | 0.31 | 0.00 | 93 | 1045.8 |
| 20260505225217 | 49 | 275 | 3.0 | 6.0 | 0.00 | 0.31 | 0.00 | 93 | 1045.9 |
| 20260505224932 | 49 | 276 | 3.0 | 6.0 | 0.00 | 0.31 | 0.00 | 93 | 1045.9 |
| 20260505224905 | 49 | 275 | 3.0 | 6.0 | 0.00 | 0.31 | 0.00 | 93 | 1045.9 |
| 20260505224856 | 49 | 276 | 2.0 | 6.0 | 0.00 | 0.31 | 0.00 | 93 | 1046.0 |
| 20260505224534 | 49 | 275 | 2.0 | 6.0 | 0.00 | 0.31 | 0.00 | 93 | 1045.9 |
| 20260505224441 | 49 | 275 | 1.0 | 6.0 | 0.00 | 0.31 | 0.00 | 93 | 1045.9 |
| 20260505224432 | 49 | 276 | 1.0 | 6.0 | 0.00 | 0.31 | 0.00 | 93 | 1045.9 |
| 20260505224334 | 49 | 275 | 1.0 | 4.0 | 0.00 | 0.31 | 0.00 | 93 | 1045.9 |
| 20260505224233 | 49 | 276 | 1.0 | 3.0 | 0.00 | 0.31 | 0.00 | 93 | 1045.9 |
| 20260505224140 | 49 | 275 | 1.0 | 3.0 | 0.00 | 0.31 | 0.00 | 93 | 1045.9 |
| 20260505224132 | 49 | 275 | 1.0 | 3.0 | 0.00 | 0.31 | 0.00 | 93 | 1045.8 |
| 20260505224117 | 49 | 276 | 1.0 | 3.0 | 0.00 | 0.31 | 0.00 | 93 | 1045.8 |
| 20260505224103 | 49 | 276 | 1.0 | 3.0 | 0.00 | 0.31 | 0.00 | 93 | 1045.8 |
| 20260505224053 | 49 | 276 | 1.0 | 3.0 | 0.00 | 0.31 | 0.00 | 93 | 1045.8 |
| 20260505223822 | 49 | 276 | 2.0 | 4.0 | 0.00 | 0.31 | 0.00 | 93 | 1045.8 |
| 20260505223558 | 49 | 275 | 2.0 | 4.0 | 0.00 | 0.31 | 0.00 | 93 | 1045.8 |
| 20260505223232 | 49 | 275 | 2.0 | 4.0 | 0.00 | 0.31 | 0.00 | 93 | 1045.8 |
| 20260505223132 | 49 | 276 | 2.0 | 4.0 | 0.00 | 0.31 | 0.00 | 93 | 1045.8 |
| 20260505223115 | 49 | 276 | 2.0 | 4.0 | 0.00 | 0.31 | 0.00 | 93 | 1045.8 |
| 20260505223059 | 49 | 275 | 2.0 | 4.0 | 0.00 | 0.31 | 0.00 | 92 | 1045.8 |
| 20260505222731 | 49 | 276 | 1.0 | 4.0 | 0.00 | 0.31 | 0.00 | 92 | 1045.8 |
| 20260505222631 | 49 | 275 | 1.0 | 4.0 | 0.00 | 0.31 | 0.00 | 92 | 1045.8 |
| 20260505222531 | 49 | 278 | 1.0 | 4.0 | 0.00 | 0.31 | 0.00 | 92 | 1045.8 |
| 20260505222436 | 49 | 276 | 1.0 | 3.0 | 0.00 | 0.31 | 0.00 | 92 | 1045.8 |
| 20260505222331 | 49 | 276 | 1.0 | 3.0 | 0.00 | 0.31 | 0.00 | 92 | 1045.9 |
| 20260505222232 | 49 | 275 | 1.0 | 3.0 | 0.00 | 0.31 | 0.00 | 92 | 1045.9 |
| 20260505222132 | 49 | 276 | 1.0 | 3.0 | 0.00 | 0.31 | 0.00 | 92 | 1045.9 |
| 20260505222031 | 49 | 276 | 0.0 | 3.0 | 0.00 | 0.31 | 0.00 | 92 | 1046.0 |
| 20260505221933 | 49 | 276 | 1.0 | 2.0 | 0.00 | 0.31 | 0.00 | 92 | 1046.0 |
| 20260505221833 | 49 | 276 | 0.0 | 2.0 | 0.00 | 0.31 | 0.00 | 92 | 1046.0 |
| 20260505221734 | 49 | 275 | 0.0 | 2.0 | 0.00 | 0.31 | 0.00 | 92 | 1046.0 |
| 20260505221630 | 49 | 276 | 0.0 | 2.0 | 0.00 | 0.31 | 0.00 | 92 | 1046.1 |
| 20260505221531 | 49 | 276 | 0.0 | 2.0 | 0.00 | 0.31 | 0.00 | 92 | 1046.1 |
| 20260505221432 | 49 | 275 | 0.0 | 2.0 | 0.00 | 0.31 | 0.00 | 92 | 1046.1 |
| 20260505221331 | 49 | 275 | 0.0 | 2.0 | 0.00 | 0.31 | 0.00 | 92 | 1046.1 |
| 20260505221230 | 49 | 275 | 0.0 | 2.0 | 0.00 | 0.31 | 0.00 | 92 | 1046.1 |
| 20260505221133 | 49 | 276 | 0.0 | 2.0 | 0.00 | 0.31 | 0.00 | 92 | 1046.2 |
| 20260505221031 | 49 | 276 | 0.0 | 2.0 | 0.00 | 0.31 | 0.00 | 92 | 1046.2 |
| 20260505220933 | 50 | 275 | 0.0 | 3.0 | 0.00 | 0.31 | 0.00 | 92 | 1046.2 |
| 20260505220846 | 50 | 275 | 1.0 | 3.0 | 0.00 | 0.31 | 0.00 | 92 | 1046.3 |
| 20260505220839 | 50 | 276 | 1.0 | 3.0 | 0.00 | 0.31 | 0.00 | 92 | 1046.3 |
| 20260505220826 | 50 | 275 | 1.0 | 3.0 | 0.00 | 0.31 | 0.00 | 92 | 1046.4 |
| 20260505220551 | 50 | 276 | 1.0 | 3.0 | 0.00 | 0.31 | 0.00 | 92 | 1046.4 |
| 20260505220226 | 50 | 276 | 2.0 | 3.0 | 0.00 | 0.31 | 0.00 | 92 | 1046.4 |
| 20260505220212 | 50 | 275 | 2.0 | 3.0 | 0.00 | 0.31 | 0.00 | 92 | 1046.5 |
| 20260505220153 | 50 | 275 | 2.0 | 3.0 | 0.00 | 0.31 | 0.00 | 92 | 1046.5 |
| 20260505215921 | 50 | 276 | 2.0 | 3.0 | 0.00 | 0.31 | 0.31 | 92 | 1046.6 |
| 20260505215821 | 50 | 276 | 2.0 | 4.0 | 0.00 | 0.31 | 0.31 | 92 | 1046.6 |
| 20260505215720 | 50 | 276 | 2.0 | 4.0 | 0.00 | 0.31 | 0.31 | 92 | 1046.6 |
| 20260505215617 | 50 | 276 | 2.0 | 4.0 | 0.00 | 0.31 | 0.31 | 92 | 1046.6 |
| 20260505215512 | 50 | 275 | 3.0 | 4.0 | 0.00 | 0.31 | 0.31 | 92 | 1046.6 |
| 20260505215411 | 50 | 275 | 3.0 | 4.0 | 0.00 | 0.31 | 0.31 | 92 | 1046.6 |
| 20260505215312 | 50 | 276 | 3.0 | 4.0 | 0.00 | 0.31 | 0.31 | 92 | 1046.6 |
| 20260505215211 | 50 | 276 | 3.0 | 4.0 | 0.00 | 0.31 | 0.31 | 92 | 1046.6 |
| 20260505215123 | 50 | 276 | 3.0 | 6.0 | 0.00 | 0.31 | 0.31 | 92 | 1046.6 |
| 20260505215057 | 50 | 275 | 3.0 | 6.0 | 0.00 | 0.31 | 0.31 | 92 | 1046.6 |
| 20260505215048 | 50 | 276 | 3.0 | 6.0 | 0.00 | 0.31 | 0.31 | 92 | 1046.6 |
| 20260505215040 | 50 | 275 | 3.0 | 6.0 | 0.00 | 0.31 | 0.31 | 92 | 1046.6 |
| 20260505214710 | 50 | 276 | 2.0 | 6.0 | 0.00 | 0.31 | 0.31 | 92 | 1046.6 |
| 20260505214611 | 50 | 276 | 2.0 | 6.0 | 0.00 | 0.31 | 0.31 | 92 | 1046.6 |
| 20260505214511 | 50 | 276 | 2.0 | 6.0 | 0.00 | 0.31 | 0.31 | 92 | 1046.5 |
| 20260505214425 | 50 | 275 | 2.0 | 6.0 | 0.00 | 0.31 | 0.31 | 92 | 1046.6 |
| 20260505214411 | 50 | 276 | 2.0 | 6.0 | 0.00 | 0.31 | 0.31 | 92 | 1046.6 |
| 20260505214311 | 50 | 275 | 2.0 | 6.0 | 0.00 | 0.31 | 0.31 | 92 | 1046.6 |
| 20260505214210 | 50 | 276 | 2.0 | 6.0 | 0.00 | 0.31 | 0.31 | 92 | 1046.6 |
| 20260505214109 | 50 | 276 | 2.0 | 4.0 | 0.00 | 0.31 | 0.31 | 92 | 1046.6 |
| 20260505214009 | 50 | 276 | 2.0 | 4.0 | 0.00 | 0.31 | 0.31 | 92 | 1046.6 |
| 20260505213909 | 50 | 276 | 2.0 | 4.0 | 0.00 | 0.31 | 0.31 | 92 | 1046.5 |
| 20260505213803 | 50 | 275 | 2.0 | 4.0 | 0.00 | 0.31 | 0.31 | 92 | 1046.5 |
| 20260505213703 | 50 | 276 | 2.0 | 4.0 | 0.00 | 0.31 | 0.31 | 92 | 1046.6 |
| 20260505213604 | 50 | 275 | 2.0 | 4.0 | 0.00 | 0.31 | 0.31 | 92 | 1046.6 |
| 20260505213505 | 51 | 275 | 2.0 | 4.0 | 0.00 | 0.31 | 0.31 | 92 | 1046.6 |
| 20260505213435 | 51 | 276 | 2.0 | 4.0 | 0.00 | 0.31 | 0.31 | 92 | 1046.6 |
| 20260505213423 | 51 | 276 | 3.0 | 4.0 | 0.00 | 0.31 | 0.31 | 92 | 1046.5 |
| 20260505213102 | 51 | 276 | 3.0 | 4.0 | 0.00 | 0.31 | 0.31 | 92 | 1046.6 |
| 20260505213000 | 51 | 276 | 3.0 | 4.0 | 0.00 | 0.31 | 0.31 | 92 | 1046.6 |
| 20260505212923 | 51 | 275 | 2.0 | 4.0 | 0.00 | 0.31 | 0.31 | 92 | 1046.6 |
| 20260505212858 | 51 | 276 | 2.0 | 4.0 | 0.00 | 0.31 | 0.31 | 92 | 1046.6 |
| 20260505212754 | 51 | 275 | 2.0 | 4.0 | 0.00 | 0.31 | 0.31 | 92 | 1046.5 |
| 20260505212652 | 51 | 275 | 2.0 | 4.0 | 0.00 | 0.31 | 0.31 | 92 | 1046.5 |
| 20260505212550 | 51 | 276 | 2.0 | 4.0 | 0.00 | 0.31 | 0.31 | 92 | 1046.6 |
| 20260505212451 | 51 | 276 | 2.0 | 4.0 | 0.00 | 0.31 | 0.31 | 92 | 1046.6 |
| 20260505212422 | 51 | 275 | 2.0 | 4.0 | 0.00 | 0.31 | 0.31 | 92 | 1046.6 |
| 20260505212350 | 51 | 275 | 2.0 | 4.0 | 0.00 | 0.31 | 0.31 | 92 | 1046.6 |
| 20260505212242 | 51 | 275 | 2.0 | 4.0 | 0.00 | 0.31 | 0.31 | 92 | 1046.6 |
| 20260505212145 | 51 | 276 | 1.0 | 4.0 | 0.00 | 0.31 | 0.31 | 92 | 1046.6 |
| 20260505212047 | 51 | 276 | 1.0 | 3.0 | 0.00 | 0.31 | 0.31 | 92 | 1046.6 |
| 20260505211923 | 51 | 276 | 1.0 | 3.0 | 0.00 | 0.31 | 0.31 | 92 | 1046.6 |
| 20260505211843 | 51 | 275 | 1.0 | 3.0 | 0.00 | 0.31 | 0.31 | 92 | 1046.6 |
| 20260505211743 | 51 | 274 | 1.0 | 3.0 | 0.00 | 0.31 | 0.31 | 92 | 1046.6 |
| 20260505211641 | 51 | 275 | 2.0 | 3.0 | 0.00 | 0.31 | 0.31 | 92 | 1046.7 |
| 20260505211538 | 51 | 275 | 1.0 | 3.0 | 0.00 | 0.31 | 0.31 | 92 | 1046.7 |
| 20260505211440 | 51 | 276 | 1.0 | 3.0 | 0.00 | 0.31 | 0.31 | 92 | 1046.7 |
| 20260505211430 | 51 | 276 | 1.0 | 3.0 | 0.00 | 0.31 | 0.31 | 92 | 1046.7 |
| 20260505211424 | 51 | 275 | 1.0 | 3.0 | 0.00 | 0.31 | 0.31 | 92 | 1046.7 |
| 20260505211415 | 51 | 275 | 1.0 | 3.0 | 0.00 | 0.31 | 0.31 | 92 | 1046.7 |
| 20260505211404 | 51 | 276 | 1.0 | 3.0 | 0.00 | 0.31 | 0.31 | 92 | 1046.7 |
| 20260505210836 | 51 | 276 | 1.0 | 3.0 | 0.00 | 0.31 | 0.31 | 92 | 1046.7 |
| 20260505210732 | 51 | 276 | 1.0 | 3.0 | 0.00 | 0.31 | 0.31 | 92 | 1046.7 |
| 20260505210632 | 51 | 276 | 1.0 | 3.0 | 0.00 | 0.31 | 0.31 | 92 | 1046.7 |
| 20260505210531 | 51 | 275 | 1.0 | 3.0 | 0.00 | 0.31 | 0.31 | 92 | 1046.7 |
| 20260505210433 | 51 | 276 | 1.0 | 3.0 | 0.00 | 0.31 | 0.31 | 92 | 1046.7 |
| 20260505210422 | 51 | 275 | 1.0 | 3.0 | 0.00 | 0.31 | 0.31 | 92 | 1046.7 |
| 20260505210331 | 51 | 276 | 2.0 | 3.0 | 0.00 | 0.31 | 0.31 | 92 | 1046.6 |
| 20260505210309 | 51 | 275 | 2.0 | 4.0 | 0.00 | 0.31 | 0.31 | 92 | 1046.6 |
| 20260505210301 | 51 | 274 | 2.0 | 4.0 | 0.00 | 0.31 | 0.31 | 92 | 1046.6 |
| 20260505205932 | 51 | 276 | 2.0 | 4.0 | 0.00 | 0.31 | 0.31 | 92 | 1046.6 |
| 20260505205923 | 51 | 275 | 2.0 | 4.0 | 0.00 | 0.31 | 0.31 | 92 | 1046.6 |
| 20260505205830 | 51 | 275 | 2.0 | 4.0 | 0.00 | 0.31 | 0.31 | 92 | 1046.5 |
| 20260505205742 | 51 | 276 | 2.0 | 4.0 | 0.00 | 0.31 | 0.31 | 92 | 1046.5 |
| 20260505205731 | 51 | 276 | 3.0 | 4.0 | 0.00 | 0.31 | 0.31 | 92 | 1046.5 |
| 20260505205721 | 51 | 276 | 3.0 | 4.0 | 0.00 | 0.31 | 0.31 | 92 | 1046.5 |
| 20260505205451 | 51 | 276 | 3.0 | 4.0 | 0.00 | 0.31 | 0.31 | 92 | 1046.5 |
| 20260505205440 | 51 | 276 | 2.0 | 4.0 | 0.00 | 0.31 | 0.31 | 92 | 1046.5 |
| 20260505205118 | 51 | 275 | 2.0 | 4.0 | 0.00 | 0.31 | 0.31 | 92 | 1046.6 |
| 20260505205105 | 51 | 276 | 2.0 | 4.0 | 0.00 | 0.31 | 0.31 | 92 | 1046.6 |
| 20260505205049 | 51 | 276 | 2.0 | 4.0 | 0.01 | 0.31 | 0.31 | 92 | 1046.7 |
| 20260505204712 | 51 | 276 | 2.0 | 4.0 | 0.01 | 0.31 | 0.31 | 92 | 1046.6 |
| 20260505204627 | 52 | 275 | 2.0 | 4.0 | 0.01 | 0.31 | 0.31 | 92 | 1046.6 |
| 20260505204617 | 52 | 276 | 2.0 | 3.0 | 0.01 | 0.31 | 0.31 | 92 | 1046.6 |
| 20260505204607 | 52 | 276 | 2.0 | 4.0 | 0.01 | 0.31 | 0.31 | 92 | 1046.5 |
| 20260505204600 | 52 | 275 | 2.0 | 4.0 | 0.01 | 0.31 | 0.31 | 92 | 1046.5 |
| 20260505204544 | 52 | 275 | 2.0 | 4.0 | 0.01 | 0.31 | 0.31 | 92 | 1046.5 |
| 20260505204538 | 52 | 275 | 2.0 | 4.0 | 0.01 | 0.31 | 0.31 | 92 | 1046.5 |
| 20260505204305 | 52 | 276 | 2.0 | 4.0 | 0.01 | 0.31 | 0.31 | 92 | 1046.5 |
| 20260505204034 | 52 | 275 | 2.0 | 4.0 | 0.01 | 0.31 | 0.31 | 92 | 1046.4 |
| 20260505203704 | 52 | 275 | 2.0 | 4.0 | 0.01 | 0.31 | 0.31 | 92 | 1046.4 |
| 20260505203606 | 52 | 276 | 2.0 | 4.0 | 0.01 | 0.31 | 0.31 | 92 | 1046.4 |
| 20260505203504 | 52 | 275 | 2.0 | 4.0 | 0.01 | 0.31 | 0.31 | 92 | 1046.4 |
| 20260505203418 | 52 | 275 | 2.0 | 4.0 | 0.01 | 0.31 | 0.31 | 92 | 1046.4 |
| 20260505203406 | 52 | 276 | 2.0 | 4.0 | 0.01 | 0.31 | 0.31 | 92 | 1046.4 |
| 20260505203304 | 52 | 276 | 2.0 | 3.0 | 0.01 | 0.31 | 0.31 | 92 | 1046.4 |
| 20260505203203 | 52 | 276 | 2.0 | 3.0 | 0.01 | 0.31 | 0.31 | 92 | 1046.3 |
| 20260505203104 | 52 | 276 | 2.0 | 3.0 | 0.01 | 0.31 | 0.31 | 92 | 1046.4 |
| 20260505202937 | 52 | 275 | 2.0 | 3.0 | 0.01 | 0.31 | 0.31 | 92 | 1046.4 |
| 20260505202930 | 52 | 276 | 2.0 | 3.0 | 0.01 | 0.31 | 0.31 | 92 | 1046.4 |
| 20260505202922 | 52 | 275 | 2.0 | 3.0 | 0.01 | 0.31 | 0.31 | 92 | 1046.4 |
| 20260505202907 | 52 | 276 | 2.0 | 3.0 | 0.01 | 0.31 | 0.31 | 92 | 1046.3 |
| 20260505202646 | 52 | 275 | 2.0 | 3.0 | 0.01 | 0.31 | 0.31 | 92 | 1046.2 |
| 20260505202354 | 52 | 275 | 2.0 | 3.0 | 0.01 | 0.31 | 0.31 | 92 | 1046.2 |
| 20260505202252 | 52 | 275 | 2.0 | 3.0 | 0.01 | 0.31 | 0.31 | 92 | 1046.2 |
| 20260505202158 | 52 | 276 | 2.0 | 3.0 | 0.01 | 0.31 | 0.31 | 92 | 1046.2 |
| 20260505202150 | 52 | 275 | 2.0 | 3.0 | 0.01 | 0.31 | 0.31 | 92 | 1046.1 |
| 20260505202143 | 52 | 275 | 2.0 | 3.0 | 0.01 | 0.31 | 0.31 | 92 | 1046.1 |
| 20260505201859 | 52 | 276 | 2.0 | 3.0 | 0.01 | 0.31 | 0.31 | 92 | 1046.1 |
| 20260505201851 | 52 | 276 | 1.0 | 3.0 | 0.01 | 0.31 | 0.31 | 92 | 1046.0 |
| 20260505201844 | 52 | 276 | 1.0 | 3.0 | 0.01 | 0.31 | 0.31 | 92 | 1046.0 |
| 20260505201819 | 52 | 276 | 1.0 | 3.0 | 0.01 | 0.31 | 0.31 | 92 | 1046.0 |
| 20260505201811 | 52 | 276 | 1.0 | 3.0 | 0.01 | 0.31 | 0.31 | 92 | 1046.0 |
| 20260505201545 | 52 | 276 | 1.0 | 3.0 | 0.01 | 0.31 | 0.31 | 92 | 1046.0 |
| 20260505201530 | 52 | 276 | 1.0 | 3.0 | 0.01 | 0.31 | 0.31 | 92 | 1046.0 |
| 20260505200948 | 52 | 276 | 0.0 | 2.0 | 0.01 | 0.31 | 0.31 | 92 | 1046.0 |
| 20260505200934 | 52 | 275 | 0.0 | 3.0 | 0.01 | 0.31 | 0.31 | 92 | 1045.9 |
| 20260505200925 | 52 | 275 | 0.0 | 3.0 | 0.01 | 0.31 | 0.31 | 92 | 1045.9 |
| 20260505200915 | 52 | 276 | 0.0 | 3.0 | 0.01 | 0.31 | 0.31 | 92 | 1046.0 |
| 20260505200549 | 52 | 275 | 1.0 | 3.0 | 0.01 | 0.31 | 0.31 | 92 | 1046.0 |
| 20260505200448 | 52 | 275 | 1.0 | 3.0 | 0.01 | 0.31 | 0.31 | 91 | 1045.9 |
| 20260505200412 | 52 | 275 | 1.0 | 3.0 | 0.01 | 0.31 | 0.31 | 92 | 1045.9 |
| 20260505200351 | 52 | 276 | 1.0 | 3.0 | 0.01 | 0.31 | 0.31 | 92 | 1045.9 |
| 20260505200246 | 52 | 276 | 1.0 | 3.0 | 0.01 | 0.31 | 0.31 | 92 | 1045.9 |
| 20260505200146 | 52 | 276 | 1.0 | 3.0 | 0.01 | 0.31 | 0.31 | 91 | 1045.9 |
| 20260505200108 | 52 | 275 | 1.0 | 3.0 | 0.01 | 0.31 | 0.31 | 91 | 1045.9 |
| 20260505200057 | 52 | 276 | 0.0 | 3.0 | 0.01 | 0.31 | 0.31 | 91 | 1045.9 |
| 20260505200046 | 52 | 276 | 0.0 | 2.0 | 0.01 | 0.31 | 0.31 | 91 | 1045.9 |
| 20260505200037 | 52 | 276 | 1.0 | 2.0 | 0.01 | 0.31 | 0.31 | 91 | 1045.9 |
| 20260505200023 | 52 | 275 | 1.0 | 2.0 | 0.01 | 0.31 | 0.31 | 91 | 1045.8 |
| 20260505195438 | 52 | 276 | 1.0 | 3.0 | 0.01 | 0.31 | 0.31 | 91 | 1045.8 |
| 20260505195412 | 52 | 275 | 1.0 | 3.0 | 0.01 | 0.31 | 0.31 | 91 | 1045.8 |
| 20260505195334 | 52 | 276 | 1.0 | 3.0 | 0.01 | 0.31 | 0.31 | 91 | 1045.8 |
| 20260505195234 | 52 | 275 | 1.0 | 3.0 | 0.01 | 0.31 | 0.31 | 91 | 1045.8 |
| 20260505195202 | 52 | 276 | 1.0 | 3.0 | 0.01 | 0.31 | 0.31 | 91 | 1045.7 |
| 20260505195153 | 52 | 275 | 1.0 | 3.0 | 0.01 | 0.31 | 0.30 | 91 | 1045.8 |
| 20260505194912 | 52 | 276 | 1.0 | 4.0 | 0.00 | 0.30 | 0.30 | 91 | 1045.7 |
| 20260505194832 | 52 | 275 | 2.0 | 4.0 | 0.00 | 0.30 | 0.30 | 91 | 1045.7 |
| 20260505194738 | 52 | 276 | 2.0 | 4.0 | 0.00 | 0.31 | 0.30 | 91 | 1045.7 |
| 20260505194724 | 52 | 275 | 2.0 | 4.0 | 0.00 | 0.31 | 0.30 | 91 | 1045.7 |
| 20260505194718 | 52 | 275 | 2.0 | 4.0 | 0.00 | 0.31 | 0.30 | 91 | 1045.6 |
| 20260505194658 | 52 | 276 | 2.0 | 4.0 | 0.00 | 0.31 | 0.30 | 91 | 1045.7 |
| 20260505194646 | 52 | 276 | 2.0 | 4.0 | 0.00 | 0.31 | 0.30 | 91 | 1045.6 |
| 20260505194638 | 53 | 275 | 3.0 | 4.0 | 0.00 | 0.31 | 0.30 | 91 | 1045.6 |
| 20260505194359 | 53 | 275 | 3.0 | 7.0 | 0.00 | 0.31 | 0.30 | 91 | 1045.6 |
| 20260505193832 | 53 | 276 | 3.0 | 7.0 | 0.00 | 0.32 | 0.30 | 91 | 1045.6 |
| 20260505193802 | 53 | 276 | 3.0 | 7.0 | 0.00 | 0.32 | 0.30 | 91 | 1045.6 |
| 20260505193754 | 53 | 276 | 3.0 | 7.0 | 0.00 | 0.33 | 0.30 | 91 | 1045.5 |
| 20260505193413 | 53 | 276 | 3.0 | 7.0 | 0.00 | 0.34 | 0.30 | 91 | 1045.5 |
| 20260505193326 | 53 | 276 | 3.0 | 7.0 | 0.00 | 0.34 | 0.30 | 91 | 1045.5 |
| 20260505193305 | 53 | 276 | 3.0 | 7.0 | 0.00 | 0.35 | 0.30 | 91 | 1045.4 |
| 20260505193258 | 53 | 275 | 2.0 | 7.0 | 0.00 | 0.35 | 0.30 | 91 | 1045.4 |
| 20260505192911 | 53 | 275 | 2.0 | 6.0 | 0.00 | 0.35 | 0.30 | 91 | 1045.2 |
| 20260505192826 | 53 | 274 | 2.0 | 4.0 | 0.00 | 0.35 | 0.30 | 91 | 1045.4 |
| 20260505192726 | 53 | 274 | 2.0 | 4.0 | 0.00 | 0.36 | 0.30 | 91 | 1045.2 |
| 20260505192626 | 53 | 275 | 2.0 | 4.0 | 0.00 | 0.36 | 0.30 | 91 | 1045.2 |
| 20260505192526 | 53 | 274 | 2.0 | 4.0 | 0.00 | 0.36 | 0.30 | 91 | 1045.2 |
| 20260505192426 | 53 | 274 | 2.0 | 4.0 | 0.00 | 0.37 | 0.30 | 91 | 1045.2 |
| 20260505192410 | 53 | 275 | 2.0 | 4.0 | 0.00 | 0.38 | 0.30 | 91 | 1045.2 |
| 20260505192328 | 53 | 275 | 2.0 | 4.0 | 0.00 | 0.38 | 0.30 | 91 | 1045.1 |
| 20260505192226 | 53 | 274 | 2.0 | 3.0 | 0.00 | 0.39 | 0.30 | 91 | 1045.1 |
| 20260505192126 | 53 | 275 | 2.0 | 4.0 | 0.00 | 0.39 | 0.30 | 91 | 1045.1 |
| 20260505192108 | 53 | 274 | 2.0 | 4.0 | 0.00 | 0.39 | 0.30 | 91 | 1045.0 |
| 20260505192101 | 53 | 275 | 2.0 | 4.0 | 0.00 | 0.40 | 0.30 | 91 | 1045.0 |
| 20260505192052 | 53 | 274 | 2.0 | 4.0 | 0.00 | 0.40 | 0.30 | 91 | 1045.0 |
| 20260505191726 | 53 | 278 | 2.0 | 4.0 | 0.00 | 0.41 | 0.30 | 91 | 1045.0 |
| 20260505191625 | 53 | 275 | 2.0 | 4.0 | 0.00 | 0.41 | 0.30 | 91 | 1044.9 |
| 20260505191606 | 53 | 275 | 2.0 | 4.0 | 0.00 | 0.42 | 0.30 | 91 | 1045.0 |
| 20260505191558 | 53 | 274 | 2.0 | 4.0 | 0.00 | 0.43 | 0.30 | 91 | 1044.9 |
| 20260505191548 | 53 | 275 | 2.0 | 4.0 | 0.00 | 0.43 | 0.30 | 91 | 1044.9 |
| 20260505191311 | 53 | 275 | 2.0 | 4.0 | 0.00 | 0.43 | 0.30 | 91 | 1044.9 |
| 20260505191304 | 53 | 274 | 2.0 | 4.0 | 0.00 | 0.43 | 0.30 | 91 | 1044.9 |
| 20260505191255 | 53 | 275 | 2.0 | 4.0 | 0.00 | 0.43 | 0.30 | 91 | 1044.8 |
| 20260505191012 | 53 | 275 | 2.0 | 4.0 | 0.00 | 0.44 | 0.30 | 91 | 1044.8 |
| 20260505190954 | 53 | 274 | 2.0 | 4.0 | 0.00 | 0.44 | 0.30 | 91 | 1044.8 |
| 20260505190654 | 53 | 275 | 2.0 | 4.0 | 0.00 | 0.44 | 0.30 | 91 | 1044.7 |
| 20260505190644 | 53 | 275 | 2.0 | 4.0 | 0.00 | 0.45 | 0.30 | 91 | 1044.8 |
| 20260505190630 | 53 | 275 | 2.0 | 4.0 | 0.00 | 0.45 | 0.30 | 91 | 1044.7 |
| 20260505190355 | 53 | 275 | 2.0 | 4.0 | 0.00 | 0.45 | 0.30 | 91 | 1044.7 |
| 20260505190347 | 53 | 275 | 2.0 | 4.0 | 0.00 | 0.45 | 0.30 | 91 | 1044.7 |
| 20260505190027 | 53 | 275 | 2.0 | 9.0 | 0.00 | 0.45 | 0.30 | 91 | 1044.6 |
| 20260505185924 | 53 | 274 | 2.0 | 9.0 | 0.00 | 0.45 | 0.30 | 90 | 1044.7 |
| 20260505185910 | 53 | 275 | 2.0 | 9.0 | 0.00 | 0.45 | 0.30 | 90 | 1044.7 |
| 20260505185822 | 53 | 275 | 2.0 | 9.0 | 0.00 | 0.45 | 0.30 | 90 | 1044.7 |
| 20260505185723 | 53 | 274 | 2.0 | 9.0 | 0.00 | 0.45 | 0.30 | 90 | 1044.7 |
| 20260505185622 | 53 | 275 | 2.0 | 9.0 | 0.00 | 0.45 | 0.30 | 90 | 1044.7 |
| 20260505185522 | 53 | 274 | 2.0 | 9.0 | 0.00 | 0.45 | 0.30 | 90 | 1044.6 |
| 20260505185423 | 53 | 275 | 2.0 | 9.0 | 0.00 | 0.45 | 0.30 | 90 | 1044.6 |
| 20260505185412 | 53 | 274 | 2.0 | 9.0 | 0.00 | 0.45 | 0.30 | 90 | 1044.6 |
| 20260505185322 | 53 | 275 | 3.0 | 9.0 | 0.00 | 0.45 | 0.30 | 90 | 1044.6 |
| 20260505185222 | 53 | 274 | 3.0 | 9.0 | 0.00 | 0.45 | 0.30 | 90 | 1044.5 |
| 20260505185121 | 54 | 274 | 3.0 | 11.0 | 0.00 | 0.45 | 0.30 | 90 | 1044.6 |
| 20260505185030 | 54 | 274 | 4.0 | 12.0 | 0.00 | 0.45 | 0.30 | 91 | 1044.6 |
| 20260505184910 | 54 | 274 | 4.0 | 12.0 | 0.00 | 0.45 | 0.30 | 91 | 1044.6 |
| 20260505184852 | 54 | 274 | 4.0 | 12.0 | 0.00 | 0.45 | 0.30 | 91 | 1044.6 |
| 20260505184845 | 54 | 274 | 5.0 | 12.0 | 0.00 | 0.45 | 0.30 | 91 | 1044.6 |
| 20260505184522 | 54 | 275 | 5.0 | 12.0 | 0.00 | 0.45 | 0.30 | 91 | 1044.6 |
| 20260505184410 | 54 | 274 | 4.0 | 12.0 | 0.00 | 0.45 | 0.30 | 91 | 1044.6 |
| 20260505184322 | 54 | 272 | 4.0 | 12.0 | 0.00 | 0.45 | 0.30 | 91 | 1044.5 |
| 20260505184222 | 54 | 326 | 4.0 | 12.0 | 0.00 | 0.45 | 0.30 | 91 | 1044.4 |
| 20260505184122 | 54 | 322 | 3.0 | 12.0 | 0.00 | 0.45 | 0.30 | 91 | 1044.5 |
| 20260505184101 | 54 | 303 | 3.0 | 10.0 | 0.00 | 0.45 | 0.30 | 91 | 1044.2 |
| 20260505184053 | 54 | 120 | 3.0 | 10.0 | 0.00 | 0.45 | 0.30 | 91 | 1044.1 |
| 20260505184043 | 54 | 119 | 3.0 | 10.0 | 0.00 | 0.45 | 0.30 | 91 | 1044.1 |
| 20260505183748 | 54 | 143 | 2.0 | 6.0 | 0.00 | 0.45 | 0.30 | 91 | 1044.6 |
| 20260505183737 | 54 | 269 | 2.0 | 4.0 | 0.00 | 0.45 | 0.30 | 91 | 1044.9 |
| 20260505183727 | 54 | 268 | 2.0 | 4.0 | 0.00 | 0.45 | 0.30 | 91 | 1044.9 |
| 20260505183456 | 54 | 270 | 2.0 | 4.0 | 0.00 | 0.45 | 0.30 | 91 | 1044.9 |
| 20260505183446 | 54 | 270 | 2.0 | 4.0 | 0.00 | 0.45 | 0.30 | 91 | 1044.9 |
| 20260505183122 | 54 | 270 | 2.0 | 4.0 | 0.00 | 0.45 | 0.30 | 91 | 1044.8 |
| 20260505183031 | 54 | 270 | 2.0 | 4.0 | 0.00 | 0.45 | 0.30 | 91 | 1044.8 |
| 20260505182910 | 54 | 270 | 2.0 | 4.0 | 0.00 | 0.45 | 0.30 | 91 | 1044.8 |
| 20260505182818 | 54 | 270 | 2.0 | 3.0 | 0.00 | 0.45 | 0.30 | 91 | 1044.8 |
| 20260505182718 | 54 | 270 | 2.0 | 3.0 | 0.00 | 0.45 | 0.30 | 91 | 1044.8 |
| 20260505182651 | 54 | 270 | 2.0 | 3.0 | 0.00 | 0.45 | 0.30 | 91 | 1044.9 |
| 20260505182641 | 54 | 272 | 2.0 | 3.0 | 0.00 | 0.45 | 0.30 | 91 | 1044.9 |
| 20260505182630 | 54 | 270 | 2.0 | 3.0 | 0.00 | 0.45 | 0.30 | 91 | 1044.9 |
| 20260505182318 | 54 | 270 | 2.0 | 3.0 | 0.00 | 0.45 | 0.30 | 91 | 1044.9 |
| 20260505182218 | 54 | 270 | 2.0 | 3.0 | 0.00 | 0.45 | 0.30 | 91 | 1045.0 |
| 20260505182146 | 54 | 270 | 2.0 | 3.0 | 0.00 | 0.45 | 0.30 | 91 | 1045.0 |
| 20260505182139 | 55 | 270 | 2.0 | 3.0 | 0.00 | 0.45 | 0.30 | 91 | 1045.0 |
| 20260505182121 | 55 | 270 | 2.0 | 3.0 | 0.00 | 0.45 | 0.30 | 91 | 1045.0 |
| 20260505181818 | 55 | 269 | 2.0 | 3.0 | 0.00 | 0.45 | 0.30 | 91 | 1045.0 |
| 20260505181718 | 55 | 299 | 2.0 | 3.0 | 0.00 | 0.45 | 0.30 | 91 | 1045.0 |
| 20260505181620 | 55 | 298 | 2.0 | 3.0 | 0.00 | 0.45 | 0.30 | 91 | 1045.1 |
| 20260505181518 | 55 | 298 | 2.0 | 3.0 | 0.02 | 0.45 | 0.30 | 91 | 1045.1 |
| 20260505181407 | 55 | 298 | 2.0 | 3.0 | 0.02 | 0.45 | 0.30 | 91 | 1045.2 |
| 20260505181318 | 55 | 298 | 2.0 | 3.0 | 0.02 | 0.45 | 0.30 | 91 | 1045.1 |
| 20260505181219 | 55 | 298 | 1.0 | 3.0 | 0.02 | 0.45 | 0.30 | 91 | 1045.2 |
| 20260505181131 | 55 | 299 | 1.0 | 3.0 | 0.02 | 0.45 | 0.30 | 91 | 1045.2 |
| 20260505181018 | 55 | 298 | 1.0 | 3.0 | 0.02 | 0.45 | 0.30 | 91 | 1045.2 |
| 20260505180948 | 55 | 298 | 1.0 | 3.0 | 0.02 | 0.45 | 0.30 | 91 | 1045.2 |
| 20260505180940 | 55 | 298 | 1.0 | 3.0 | 0.02 | 0.45 | 0.30 | 91 | 1045.2 |
| 20260505180618 | 55 | 299 | 1.0 | 3.0 | 0.02 | 0.45 | 0.30 | 92 | 1045.2 |
| 20260505180518 | 55 | 298 | 1.0 | 3.0 | 0.02 | 0.45 | 0.30 | 91 | 1045.2 |
| 20260505180502 | 55 | 298 | 1.0 | 4.0 | 0.02 | 0.45 | 0.30 | 91 | 1045.4 |
| 20260505180452 | 55 | 299 | 1.0 | 4.0 | 0.02 | 0.45 | 0.30 | 91 | 1045.4 |
| 20260505180443 | 55 | 298 | 1.0 | 4.0 | 0.02 | 0.45 | 0.30 | 91 | 1045.4 |
| 20260505180118 | 55 | 298 | 2.0 | 4.0 | 0.02 | 0.45 | 0.30 | 91 | 1045.4 |
| 20260505180020 | 55 | 298 | 2.0 | 4.0 | 0.02 | 0.45 | 0.30 | 91 | 1045.4 |
| 20260505175907 | 55 | 298 | 2.0 | 4.0 | 0.02 | 0.45 | 0.30 | 91 | 1045.4 |
| 20260505175819 | 55 | 299 | 2.0 | 4.0 | 0.02 | 0.45 | 0.30 | 91 | 1045.4 |
| 20260505175733 | 55 | 299 | 2.0 | 4.0 | 0.02 | 0.45 | 0.30 | 91 | 1045.4 |
| 20260505175726 | 55 | 299 | 2.0 | 4.0 | 0.02 | 0.45 | 0.30 | 91 | 1045.2 |
| 20260505175717 | 55 | 298 | 2.0 | 4.0 | 0.02 | 0.45 | 0.30 | 91 | 1045.2 |
| 20260505175447 | 55 | 299 | 2.0 | 4.0 | 0.02 | 0.45 | 0.30 | 91 | 1045.2 |
| 20260505175437 | 55 | 299 | 2.0 | 4.0 | 0.02 | 0.45 | 0.30 | 91 | 1045.4 |
| 20260505175109 | 55 | 298 | 2.0 | 4.0 | 0.02 | 0.45 | 0.30 | 91 | 1045.2 |
| 20260505175007 | 55 | 299 | 1.0 | 4.0 | 0.02 | 0.45 | 0.30 | 91 | 1045.2 |
| 20260505174916 | 55 | 298 | 1.0 | 4.0 | 0.02 | 0.45 | 0.30 | 91 | 1045.2 |
| 20260505174907 | 55 | 297 | 1.0 | 4.0 | 0.02 | 0.45 | 0.30 | 91 | 1045.2 |
| 20260505174808 | 55 | 298 | 1.0 | 4.0 | 0.02 | 0.45 | 0.30 | 91 | 1045.2 |
| 20260505174706 | 55 | 298 | 1.0 | 4.0 | 0.02 | 0.45 | 0.30 | 91 | 1045.2 |
| 20260505174655 | 55 | 298 | 1.0 | 4.0 | 0.02 | 0.45 | 0.30 | 91 | 1045.2 |
| 20260505174646 | 55 | 298 | 0.0 | 4.0 | 0.02 | 0.45 | 0.30 | 91 | 1045.2 |
| 20260505174628 | 55 | 298 | 0.0 | 1.0 | 0.02 | 0.45 | 0.30 | 91 | 1045.2 |
| 20260505174616 | 55 | 298 | 0.0 | 1.0 | 0.02 | 0.45 | 0.30 | 91 | 1045.2 |
| 20260505174346 | 55 | 297 | 0.0 | 2.0 | 0.02 | 0.45 | 0.30 | 91 | 1045.1 |
| 20260505174338 | 55 | 298 | 0.0 | 2.0 | 0.02 | 0.45 | 0.30 | 91 | 1045.1 |
| 20260505174326 | 55 | 297 | 0.0 | 2.0 | 0.02 | 0.45 | 0.30 | 91 | 1045.1 |
| 20260505174040 | 55 | 298 | 0.0 | 2.0 | 0.02 | 0.45 | 0.30 | 91 | 1045.1 |
| 20260505174032 | 55 | 297 | 0.0 | 2.0 | 0.02 | 0.45 | 0.30 | 91 | 1045.1 |
| 20260505173535 | 55 | 298 | 0.0 | 2.0 | 0.02 | 0.45 | 0.30 | 91 | 1045.2 |
| 20260505173204 | 55 | 298 | 1.0 | 2.0 | 0.03 | 0.45 | 0.30 | 91 | 1045.2 |
| 20260505173146 | 55 | 298 | 1.0 | 2.0 | 0.03 | 0.45 | 0.30 | 91 | 1045.2 |
| 20260505173138 | 55 | 298 | 1.0 | 2.0 | 0.03 | 0.45 | 0.30 | 91 | 1045.2 |
| 20260505172906 | 55 | 298 | 1.0 | 2.0 | 0.03 | 0.45 | 0.30 | 91 | 1045.2 |
| 20260505172803 | 55 | 298 | 1.0 | 2.0 | 0.03 | 0.45 | 0.30 | 91 | 1045.2 |
| 20260505172726 | 55 | 298 | 1.0 | 3.0 | 0.03 | 0.45 | 0.30 | 91 | 1045.2 |
| 20260505172721 | 55 | 298 | 1.0 | 3.0 | 0.03 | 0.45 | 0.30 | 91 | 1045.2 |
| 20260505172707 | 55 | 298 | 1.0 | 3.0 | 0.03 | 0.45 | 0.30 | 91 | 1045.2 |
| 20260505172436 | 55 | 298 | 2.0 | 3.0 | 0.03 | 0.45 | 0.30 | 91 | 1045.2 |
| 20260505172425 | 55 | 298 | 2.0 | 3.0 | 0.03 | 0.45 | 0.30 | 91 | 1045.2 |
| 20260505172149 | 55 | 298 | 2.0 | 3.0 | 0.04 | 0.45 | 0.30 | 91 | 1045.2 |
| 20260505172141 | 55 | 298 | 2.0 | 3.0 | 0.05 | 0.45 | 0.30 | 91 | 1045.2 |
| 20260505172118 | 55 | 298 | 2.0 | 3.0 | 0.05 | 0.45 | 0.30 | 91 | 1045.2 |
| 20260505171803 | 55 | 298 | 2.0 | 3.0 | 0.05 | 0.45 | 0.30 | 91 | 1045.1 |
| 20260505171703 | 55 | 299 | 2.0 | 3.0 | 0.05 | 0.45 | 0.30 | 91 | 1045.1 |
| 20260505171653 | 55 | 298 | 2.0 | 3.0 | 0.05 | 0.45 | 0.28 | 91 | 1045.1 |
| 20260505171641 | 55 | 298 | 1.0 | 3.0 | 0.03 | 0.43 | 0.28 | 91 | 1045.2 |
| 20260505171621 | 55 | 298 | 1.0 | 3.0 | 0.03 | 0.43 | 0.28 | 90 | 1045.1 |
| 20260505171304 | 55 | 298 | 1.0 | 3.0 | 0.04 | 0.43 | 0.28 | 90 | 1045.1 |
| 20260505171204 | 55 | 359 | 1.0 | 3.0 | 0.04 | 0.43 | 0.28 | 90 | 1045.1 |
| 20260505171143 | 55 | 298 | 1.0 | 3.0 | 0.04 | 0.43 | 0.28 | 90 | 1045.1 |
| 20260505171135 | 55 | 298 | 1.0 | 3.0 | 0.05 | 0.43 | 0.28 | 90 | 1045.1 |
| 20260505170906 | 55 | 298 | 1.0 | 3.0 | 0.05 | 0.43 | 0.28 | 90 | 1045.1 |
| 20260505170804 | 55 | 298 | 0.0 | 3.0 | 0.06 | 0.43 | 0.28 | 90 | 1045.1 |
| 20260505170702 | 55 | 298 | 0.0 | 3.0 | 0.06 | 0.43 | 0.28 | 90 | 1045.1 |
| 20260505170600 | 55 | 298 | 1.0 | 3.0 | 0.06 | 0.43 | 0.28 | 90 | 1045.1 |
| 20260505170457 | 55 | 299 | 1.0 | 3.0 | 0.06 | 0.43 | 0.28 | 90 | 1045.2 |
| 20260505170410 | 55 | 299 | 1.0 | 4.0 | 0.07 | 0.43 | 0.28 | 90 | 1045.1 |
| 20260505170356 | 55 | 298 | 1.0 | 4.0 | 0.07 | 0.43 | 0.28 | 90 | 1045.1 |
| 20260505170256 | 54 | 298 | 1.0 | 4.0 | 0.07 | 0.43 | 0.28 | 90 | 1045.1 |
| 20260505170155 | 54 | 298 | 2.0 | 4.0 | 0.07 | 0.43 | 0.28 | 90 | 1045.1 |
| 20260505170054 | 54 | 299 | 2.0 | 4.0 | 0.08 | 0.43 | 0.28 | 90 | 1045.1 |
| 20260505165954 | 54 | 298 | 2.0 | 4.0 | 0.08 | 0.43 | 0.28 | 90 | 1045.1 |
| 20260505165905 | 54 | 298 | 2.0 | 4.0 | 0.09 | 0.43 | 0.28 | 90 | 1045.1 |
| 20260505165852 | 54 | 298 | 2.0 | 4.0 | 0.09 | 0.43 | 0.28 | 90 | 1045.1 |
| 20260505165750 | 54 | 298 | 2.0 | 4.0 | 0.09 | 0.43 | 0.28 | 90 | 1045.1 |
| 20260505165648 | 54 | 298 | 2.0 | 4.0 | 0.09 | 0.43 | 0.28 | 90 | 1045.1 |
| 20260505165629 | 54 | 298 | 2.0 | 4.0 | 0.09 | 0.43 | 0.28 | 90 | 1045.1 |
| 20260505165620 | 54 | 298 | 2.0 | 4.0 | 0.09 | 0.43 | 0.28 | 90 | 1045.2 |
| 20260505165610 | 54 | 300 | 2.0 | 3.0 | 0.09 | 0.43 | 0.28 | 90 | 1045.2 |
| 20260505165248 | 54 | 298 | 2.0 | 3.0 | 0.09 | 0.43 | 0.28 | 90 | 1045.2 |
| 20260505165232 | 54 | 298 | 1.0 | 3.0 | 0.09 | 0.43 | 0.28 | 90 | 1045.1 |
| 20260505165223 | 54 | 359 | 1.0 | 3.0 | 0.10 | 0.43 | 0.28 | 90 | 1045.1 |
| 20260505165200 | 54 | 298 | 1.0 | 3.0 | 0.10 | 0.43 | 0.28 | 90 | 1045.1 |
| 20260505164933 | 54 | 298 | 1.0 | 4.0 | 0.10 | 0.43 | 0.28 | 90 | 1045.1 |
| 20260505164922 | 54 | 299 | 1.0 | 4.0 | 0.10 | 0.43 | 0.28 | 90 | 1045.1 |
| 20260505164915 | 54 | 298 | 2.0 | 4.0 | 0.10 | 0.43 | 0.28 | 90 | 1045.1 |
| 20260505164901 | 54 | 298 | 2.0 | 8.0 | 0.10 | 0.43 | 0.28 | 90 | 1045.1 |
| 20260505164849 | 54 | 298 | 2.0 | 8.0 | 0.11 | 0.43 | 0.28 | 90 | 1045.1 |
| 20260505164618 | 54 | 297 | 2.0 | 8.0 | 0.11 | 0.43 | 0.28 | 90 | 1045.1 |
| 20260505164350 | 54 | 298 | 3.0 | 10.0 | 0.11 | 0.43 | 0.28 | 90 | 1045.2 |
| 20260505164339 | 54 | 298 | 4.0 | 10.0 | 0.12 | 0.43 | 0.28 | 90 | 1045.2 |
| 20260505164111 | 54 | 298 | 4.0 | 10.0 | 0.12 | 0.43 | 0.28 | 90 | 1045.2 |
| 20260505163847 | 54 | 298 | 4.0 | 10.0 | 0.12 | 0.43 | 0.28 | 90 | 1045.1 |
| 20260505163835 | 54 | 298 | 4.0 | 10.0 | 0.12 | 0.43 | 0.28 | 90 | 1045.1 |
| 20260505163808 | 55 | 300 | 5.0 | 10.0 | 0.12 | 0.43 | 0.28 | 90 | 1045.1 |
| 20260505163533 | 55 | 299 | 5.0 | 10.0 | 0.13 | 0.43 | 0.27 | 90 | 1045.1 |
| 20260505163304 | 55 | 299 | 4.0 | 10.0 | 0.13 | 0.42 | 0.27 | 90 | 1045.1 |
| 20260505162940 | 55 | 103 | 3.0 | 10.0 | 0.13 | 0.42 | 0.27 | 89 | 1045.0 |
| 20260505162903 | 55 | 104 | 3.0 | 10.0 | 0.14 | 0.42 | 0.27 | 89 | 1045.0 |
| 20260505162841 | 55 | 104 | 3.0 | 10.0 | 0.14 | 0.42 | 0.27 | 89 | 1045.0 |
| 20260505162738 | 55 | 104 | 3.0 | 10.0 | 0.15 | 0.42 | 0.27 | 89 | 1044.9 |
| 20260505162639 | 55 | 104 | 3.0 | 10.0 | 0.16 | 0.42 | 0.27 | 89 | 1044.9 |
| 20260505162538 | 55 | 104 | 2.0 | 10.0 | 0.17 | 0.42 | 0.27 | 89 | 1045.0 |
| 20260505162435 | 55 | 100 | 2.0 | 10.0 | 0.19 | 0.42 | 0.27 | 89 | 1045.1 |
| 20260505162404 | 55 | 106 | 2.0 | 7.0 | 0.19 | 0.42 | 0.27 | 89 | 1045.1 |
| 20260505162336 | 55 | 250 | 1.0 | 4.0 | 0.20 | 0.42 | 0.26 | 89 | 1045.2 |
| 20260505162234 | 55 | 255 | 1.0 | 4.0 | 0.20 | 0.41 | 0.26 | 89 | 1045.4 |
| 20260505162134 | 55 | 255 | 1.0 | 4.0 | 0.20 | 0.41 | 0.26 | 90 | 1045.5 |
| 20260505162038 | 55 | 255 | 1.0 | 4.0 | 0.21 | 0.41 | 0.25 | 89 | 1045.5 |
| 20260505161934 | 55 | 255 | 2.0 | 4.0 | 0.22 | 0.40 | 0.25 | 89 | 1045.5 |
| 20260505161904 | 55 | 255 | 2.0 | 4.0 | 0.22 | 0.40 | 0.25 | 89 | 1045.5 |
| 20260505161836 | 55 | 255 | 2.0 | 4.0 | 0.22 | 0.40 | 0.25 | 89 | 1045.4 |
| 20260505161734 | 55 | 255 | 2.0 | 4.0 | 0.22 | 0.40 | 0.25 | 89 | 1045.5 |
| 20260505161631 | 55 | 255 | 2.0 | 4.0 | 0.22 | 0.40 | 0.24 | 89 | 1045.5 |
| 20260505161533 | 55 | 255 | 2.0 | 4.0 | 0.22 | 0.39 | 0.24 | 89 | 1045.4 |
| 20260505161515 | 55 | 256 | 2.0 | 4.0 | 0.22 | 0.39 | 0.24 | 89 | 1045.5 |
| 20260505161504 | 55 | 256 | 2.0 | 7.0 | 0.22 | 0.39 | 0.24 | 89 | 1045.5 |
| 20260505161455 | 55 | 256 | 2.0 | 7.0 | 0.22 | 0.39 | 0.24 | 89 | 1045.5 |
| 20260505161131 | 55 | 256 | 2.0 | 7.0 | 0.22 | 0.39 | 0.24 | 89 | 1045.5 |
| 20260505161110 | 55 | 257 | 2.0 | 7.0 | 0.22 | 0.39 | 0.23 | 89 | 1045.4 |
| 20260505161051 | 55 | 256 | 2.0 | 7.0 | 0.21 | 0.38 | 0.22 | 89 | 1045.4 |
| 20260505160732 | 55 | 256 | 2.0 | 7.0 | 0.20 | 0.37 | 0.22 | 89 | 1045.5 |
| 20260505160701 | 55 | 256 | 2.0 | 7.0 | 0.20 | 0.37 | 0.21 | 89 | 1045.5 |
| 20260505160652 | 55 | 256 | 2.0 | 7.0 | 0.20 | 0.36 | 0.21 | 89 | 1045.5 |
| 20260505160624 | 55 | 256 | 2.0 | 7.0 | 0.20 | 0.36 | 0.20 | 89 | 1045.5 |
| 20260505160332 | 55 | 256 | 2.0 | 7.0 | 0.19 | 0.35 | 0.20 | 89 | 1045.4 |
| 20260505160310 | 55 | 254 | 2.0 | 4.0 | 0.19 | 0.35 | 0.20 | 89 | 1045.4 |
| 20260505160302 | 55 | 254 | 2.0 | 4.0 | 0.18 | 0.35 | 0.20 | 89 | 1045.4 |
| 20260505160251 | 55 | 254 | 2.0 | 4.0 | 0.18 | 0.35 | 0.20 | 88 | 1045.4 |
| 20260505153232 | 57 | 249 | 3.0 | 10.0 | 0.13 | 0.30 | 0.14 | 83 | 1045.4 |
| 20260505153205 | 57 | 248 | 3.0 | 7.0 | 0.13 | 0.29 | 0.14 | 83 | 1045.4 |
| 20260505153159 | 57 | 247 | 3.0 | 7.0 | 0.13 | 0.29 | 0.13 | 82 | 1045.4 |
| 20260505152903 | 58 | 245 | 3.0 | 7.0 | 0.11 | 0.28 | 0.12 | 82 | 1045.4 |
| 20260505152838 | 58 | 253 | 3.0 | 7.0 | 0.11 | 0.28 | 0.12 | 81 | 1045.4 |
| 20260505152734 | 58 | 262 | 3.0 | 7.0 | 0.09 | 0.26 | 0.11 | 81 | 1045.4 |
| 20260505152629 | 58 | 261 | 3.0 | 7.0 | 0.09 | 0.25 | 0.10 | 80 | 1045.4 |
| 20260505152530 | 58 | 261 | 2.0 | 7.0 | 0.08 | 0.24 | 0.09 | 80 | 1045.2 |
| 20260505152430 | 58 | 262 | 3.0 | 8.0 | 0.06 | 0.23 | 0.08 | 79 | 1045.2 |
| 20260505152412 | 58 | 281 | 3.0 | 8.0 | 0.06 | 0.23 | 0.07 | 79 | 1045.2 |
| 20260505152400 | 58 | 281 | 3.0 | 8.0 | 0.06 | 0.22 | 0.06 | 78 | 1045.1 |
| 20260505152352 | 58 | 281 | 3.0 | 8.0 | 0.05 | 0.21 | 0.06 | 77 | 1045.1 |
| 20260505152027 | 59 | 281 | 3.0 | 8.0 | 0.03 | 0.20 | 0.04 | 76 | 1045.1 |
| 20260505151904 | 59 | 281 | 4.0 | 8.0 | 0.02 | 0.18 | 0.03 | 75 | 1045.1 |
| 20260505151824 | 59 | 281 | 4.0 | 9.0 | 0.02 | 0.18 | 0.03 | 75 | 1045.1 |
| 20260505151747 | 60 | 282 | 4.0 | 9.0 | 0.02 | 0.18 | 0.03 | 74 | 1045.1 |
| 20260505151737 | 60 | 282 | 4.0 | 9.0 | 0.02 | 0.18 | 0.02 | 74 | 1045.1 |
| 20260505151721 | 60 | 293 | 4.0 | 9.0 | 0.01 | 0.17 | 0.02 | 73 | 1045.1 |
| 20260505151711 | 60 | 285 | 5.0 | 15.0 | 0.01 | 0.17 | 0.02 | 72 | 1045.1 |
| 20260505151702 | 60 | 274 | 5.0 | 15.0 | 0.01 | 0.17 | 0.02 | 72 | 1045.1 |
| 20260505151117 | 61 | 292 | 6.0 | 15.0 | 0.00 | 0.17 | 0.02 | 70 | 1045.1 |
| 20260505151054 | 61 | 292 | 6.0 | 15.0 | 0.00 | 0.17 | 0.02 | 69 | 1045.1 |
| 20260505151046 | 62 | 289 | 6.0 | 15.0 | 0.00 | 0.17 | 0.02 | 69 | 1045.1 |
| 20260505151037 | 62 | 301 | 6.0 | 15.0 | 0.00 | 0.17 | 0.02 | 69 | 1045.1 |
| 20260505150748 | 62 | 291 | 7.0 | 15.0 | 0.00 | 0.17 | 0.02 | 68 | 1045.1 |
| 20260505150742 | 62 | 289 | 7.0 | 15.0 | 0.00 | 0.17 | 0.02 | 67 | 1045.1 |
| 20260505150728 | 62 | 319 | 7.0 | 15.0 | 0.00 | 0.17 | 0.02 | 67 | 1045.0 |
| 20260505150720 | 63 | 287 | 7.0 | 13.0 | 0.00 | 0.17 | 0.02 | 67 | 1045.0 |
| 20260505150711 | 63 | 274 | 7.0 | 13.0 | 0.00 | 0.17 | 0.02 | 67 | 1045.0 |
| 20260505150702 | 63 | 297 | 7.0 | 13.0 | 0.00 | 0.17 | 0.02 | 67 | 1044.9 |
| 20260505150144 | 64 | 279 | 7.0 | 13.0 | 0.00 | 0.17 | 0.02 | 69 | 1044.9 |
| 20260505150135 | 64 | 278 | 7.0 | 13.0 | 0.00 | 0.17 | 0.02 | 68 | 1044.9 |
| 20260505150126 | 64 | 278 | 7.0 | 13.0 | 0.00 | 0.17 | 0.02 | 68 | 1044.9 |
| 20260505150118 | 64 | 270 | 7.0 | 13.0 | 0.00 | 0.17 | 0.02 | 67 | 1044.9 |
| 20260505150107 | 64 | 299 | 6.0 | 13.0 | 0.00 | 0.17 | 0.02 | 66 | 1044.9 |
| 20260505140547 | 66 | 115 | 3.0 | 9.0 | 0.00 | 0.17 | 0.02 | 64 | 1044.5 |
| 20260505140526 | 66 | 114 | 3.0 | 9.0 | 0.00 | 0.17 | 0.02 | 64 | 1044.5 |
| 20260505140516 | 66 | 114 | 3.0 | 9.0 | 0.00 | 0.17 | 0.02 | 64 | 1044.5 |